| time (UTC) | temp C | wind direction | speed KPH | gust KPH | rain 1hr cm | rain 24hr cm | rain mn cm | humidity % | barometer mb |
| 20260506033957 | 24 | 179 | 1.6 | 4.8 | 0.00 | 0.03 | 0.03 | 5 | 1008.5 |
| 20260506033856 | 24 | 179 | 0.0 | 4.8 | 0.00 | 0.03 | 0.03 | 5 | 1008.5 |
| 20260506033658 | 24 | 177 | 0.0 | 6.4 | 0.00 | 0.03 | 0.03 | 6 | 1008.5 |
| 20260506033559 | 25 | 177 | 0.0 | 6.4 | 0.00 | 0.03 | 0.03 | 6 | 1008.5 |
| 20260506033456 | 25 | 177 | 3.2 | 6.4 | 0.00 | 0.03 | 0.03 | 6 | 1008.5 |
| 20260506033358 | 25 | 177 | 0.0 | 9.7 | 0.00 | 0.03 | 0.03 | 7 | 1008.5 |
| 20260506033259 | 25 | 177 | 0.0 | 9.7 | 0.00 | 0.03 | 0.03 | 7 | 1008.4 |
| 20260506033158 | 25 | 177 | 0.0 | 9.7 | 0.00 | 0.03 | 0.03 | 7 | 1008.4 |
| 20260506033056 | 25 | 177 | 0.0 | 9.7 | 0.00 | 0.03 | 0.03 | 7 | 1008.4 |
| 20260506032857 | 25 | 177 | 1.6 | 9.7 | 0.00 | 0.03 | 0.03 | 8 | 1008.4 |
| 20260506032758 | 25 | 177 | 3.2 | 9.7 | 0.00 | 0.03 | 0.03 | 8 | 1008.4 |
| 20260506032556 | 25 | 181 | 8.0 | 9.7 | 0.00 | 0.03 | 0.03 | 9 | 1008.4 |
| 20260506032458 | 25 | 222 | 0.0 | 3.2 | 0.00 | 0.03 | 0.03 | 10 | 1008.4 |
| 20260506032355 | 25 | 221 | 3.2 | 8.0 | 0.00 | 0.03 | 0.03 | 10 | 1008.5 |
| 20260506032255 | 25 | 221 | 0.0 | 8.0 | 0.00 | 0.03 | 0.03 | 10 | 1008.4 |
| 20260506032156 | 25 | 221 | 0.0 | 8.0 | 0.00 | 0.03 | 0.03 | 11 | 1008.4 |
| 20260506032057 | 25 | 221 | 0.0 | 8.0 | 0.00 | 0.03 | 0.03 | 11 | 1008.4 |
| 20260506031855 | 25 | 221 | 0.0 | 8.0 | 0.00 | 0.03 | 0.03 | 11 | 1008.4 |
| 20260506031756 | 25 | 221 | 0.0 | 8.0 | 0.00 | 0.03 | 0.03 | 11 | 1008.5 |
| 20260506031658 | 25 | 221 | 1.6 | 8.0 | 0.00 | 0.03 | 0.03 | 11 | 1008.4 |
| 20260506031558 | 25 | 221 | 1.6 | 8.0 | 0.00 | 0.03 | 0.03 | 12 | 1008.4 |
| 20260506031456 | 25 | 156 | 0.0 | 4.8 | 0.00 | 0.03 | 0.03 | 12 | 1008.4 |
| 20260506031257 | 25 | 167 | 0.0 | 4.8 | 0.00 | 0.03 | 0.03 | 12 | 1008.4 |
| 20260506031158 | 25 | 167 | 0.0 | 4.8 | 0.00 | 0.03 | 0.03 | 13 | 1008.4 |
| 20260506031055 | 25 | 167 | 0.0 | 4.8 | 0.00 | 0.03 | 0.03 | 13 | 1008.3 |
| 20260506030957 | 25 | 167 | 0.0 | 4.8 | 0.00 | 0.03 | 0.03 | 13 | 1008.3 |
| 20260506030758 | 25 | 167 | 3.2 | 4.8 | 0.00 | 0.03 | 0.03 | 13 | 1008.3 |
| 20260506030556 | 25 | 167 | 4.8 | 8.0 | 0.00 | 0.03 | 0.03 | 14 | 1008.2 |
| 20260506030458 | 25 | 167 | 1.6 | 8.0 | 0.00 | 0.03 | 0.03 | 14 | 1008.2 |
| 20260506030358 | 25 | 167 | 1.6 | 8.0 | 0.00 | 0.03 | 0.03 | 14 | 1008.2 |
| 20260506030257 | 25 | 167 | 1.6 | 8.0 | 0.00 | 0.03 | 0.03 | 15 | 1008.2 |
| 20260506030156 | 25 | 167 | 1.6 | 8.0 | 0.00 | 0.03 | 0.03 | 15 | 1008.2 |
| 20260506030058 | 25 | 167 | 0.0 | 8.0 | 0.00 | 0.03 | 0.03 | 15 | 1008.2 |
| 20260506030005 | 25 | 167 | 3.2 | 8.0 | 0.00 | 0.03 | 0.03 | 15 | 1008.2 |
| 20260506025855 | 25 | 167 | 1.6 | 8.0 | 0.00 | 0.03 | 0.03 | 16 | 1008.2 |
| 20260506025656 | 25 | 222 | 1.6 | 8.0 | 0.00 | 0.03 | 0.03 | 16 | 1008.1 |
| 20260506025558 | 25 | 222 | 0.0 | 8.0 | 0.00 | 0.03 | 0.03 | 16 | 1008.1 |
| 20260506025456 | 25 | 222 | 1.6 | 8.0 | 0.00 | 0.03 | 0.03 | 16 | 1008.1 |
| 20260506025255 | 25 | 221 | 1.6 | 6.4 | 0.00 | 0.03 | 0.03 | 16 | 1008.1 |
| 20260506025158 | 25 | 221 | 1.6 | 8.0 | 0.00 | 0.03 | 0.03 | 17 | 1008.0 |
| 20260506025058 | 25 | 221 | 3.2 | 8.0 | 0.00 | 0.03 | 0.03 | 17 | 1008.1 |
| 20260506024957 | 25 | 227 | 0.0 | 8.0 | 0.00 | 0.03 | 0.03 | 17 | 1008.1 |
| 20260506024855 | 25 | 227 | 0.0 | 8.0 | 0.00 | 0.03 | 0.03 | 17 | 1008.1 |
| 20260506024758 | 25 | 227 | 0.0 | 8.0 | 0.00 | 0.03 | 0.03 | 17 | 1008.2 |
| 20260506024658 | 25 | 227 | 0.0 | 8.0 | 0.00 | 0.03 | 0.03 | 17 | 1008.1 |
| 20260506024556 | 25 | 229 | 6.4 | 8.0 | 0.00 | 0.03 | 0.03 | 17 | 1008.1 |
| 20260506024456 | 25 | 211 | 0.0 | 8.0 | 0.00 | 0.03 | 0.03 | 17 | 1008.0 |
| 20260506024359 | 25 | 211 | 0.0 | 8.0 | 0.00 | 0.03 | 0.03 | 17 | 1008.1 |
| 20260506024257 | 25 | 195 | 0.0 | 8.0 | 0.00 | 0.03 | 0.03 | 17 | 1008.0 |
| 20260506024156 | 25 | 195 | 4.8 | 8.0 | 0.00 | 0.03 | 0.03 | 17 | 1008.0 |
| 20260506024057 | 25 | 213 | 0.0 | 6.4 | 0.00 | 0.03 | 0.03 | 17 | 1008.0 |
| 20260506023857 | 25 | 212 | 0.0 | 6.4 | 0.00 | 0.03 | 0.03 | 18 | 1008.0 |
| 20260506023756 | 25 | 212 | 3.2 | 6.4 | 0.00 | 0.03 | 0.03 | 18 | 1008.0 |
| 20260506023656 | 25 | 212 | 1.6 | 6.4 | 0.00 | 0.03 | 0.03 | 18 | 1007.9 |
| 20260506023558 | 25 | 179 | 3.2 | 4.8 | 0.00 | 0.03 | 0.03 | 19 | 1007.9 |
| 20260506023455 | 25 | 179 | 0.0 | 4.8 | 0.00 | 0.03 | 0.03 | 19 | 1007.9 |
| 20260506023356 | 25 | 179 | 0.0 | 4.8 | 0.00 | 0.03 | 0.03 | 19 | 1007.9 |
| 20260506023255 | 25 | 164 | 1.6 | 4.8 | 0.00 | 0.03 | 0.03 | 19 | 1007.8 |
| 20260506022857 | 25 | 162 | 1.6 | 4.8 | 0.00 | 0.03 | 0.03 | 21 | 1007.8 |
| 20260506022758 | 25 | 162 | 4.8 | 6.4 | 0.00 | 0.03 | 0.03 | 21 | 1007.8 |
| 20260506022658 | 25 | 162 | 0.0 | 6.4 | 0.00 | 0.03 | 0.03 | 22 | 1007.7 |
| 20260506022556 | 25 | 162 | 0.0 | 6.4 | 0.00 | 0.03 | 0.03 | 22 | 1007.7 |
| 20260506022258 | 25 | 162 | 1.6 | 8.0 | 0.00 | 0.03 | 0.03 | 23 | 1007.7 |
| 20260506022157 | 25 | 161 | 1.6 | 8.0 | 0.00 | 0.03 | 0.03 | 24 | 1007.7 |
| 20260506022056 | 25 | 161 | 1.6 | 8.0 | 0.00 | 0.03 | 0.03 | 24 | 1007.7 |
| 20260506022000 | 25 | 162 | 1.6 | 8.0 | 0.00 | 0.03 | 0.03 | 24 | 1007.7 |
| 20260506021756 | 25 | 161 | 3.2 | 8.0 | 0.00 | 0.03 | 0.03 | 25 | 1007.7 |
| 20260506021655 | 25 | 162 | 0.0 | 8.0 | 0.00 | 0.03 | 0.03 | 26 | 1007.7 |
| 20260506021558 | 25 | 161 | 1.6 | 8.0 | 0.00 | 0.03 | 0.03 | 26 | 1007.7 |
| 20260506021458 | 25 | 164 | 0.0 | 8.0 | 0.00 | 0.03 | 0.03 | 26 | 1007.7 |
| 20260506021358 | 25 | 164 | 8.0 | 8.0 | 0.00 | 0.03 | 0.03 | 27 | 1007.7 |
| 20260506021255 | 25 | 164 | 0.0 | 6.4 | 0.00 | 0.03 | 0.03 | 27 | 1007.7 |
| 20260506021156 | 25 | 164 | 0.0 | 8.0 | 0.00 | 0.03 | 0.03 | 27 | 1007.7 |
| 20260506021058 | 25 | 164 | 0.0 | 9.7 | 0.00 | 0.03 | 0.03 | 27 | 1007.7 |
| 20260506020959 | 25 | 164 | 0.0 | 9.7 | 0.00 | 0.03 | 0.03 | 27 | 1007.7 |
| 20260506020855 | 25 | 164 | 1.6 | 9.7 | 0.00 | 0.03 | 0.03 | 28 | 1007.6 |
| 20260506020756 | 25 | 163 | 0.0 | 9.7 | 0.00 | 0.03 | 0.03 | 28 | 1007.7 |
| 20260506020657 | 25 | 163 | 1.6 | 9.7 | 0.00 | 0.03 | 0.03 | 28 | 1007.7 |
| 20260506020558 | 25 | 163 | 4.8 | 9.7 | 0.00 | 0.03 | 0.03 | 29 | 1007.7 |
| 20260506020456 | 25 | 172 | 4.8 | 9.7 | 0.00 | 0.03 | 0.03 | 29 | 1007.6 |
| 20260506020357 | 25 | 171 | 1.6 | 9.7 | 0.00 | 0.03 | 0.03 | 29 | 1007.6 |
| 20260506020258 | 25 | 171 | 1.6 | 9.7 | 0.00 | 0.03 | 0.03 | 29 | 1007.6 |
| 20260506020158 | 25 | 173 | 3.2 | 9.7 | 0.00 | 0.03 | 0.03 | 29 | 1007.6 |
| 20260506020055 | 25 | 181 | 4.8 | 8.0 | 0.00 | 0.03 | 0.03 | 29 | 1007.6 |
| 20260506015957 | 25 | 205 | 0.0 | 8.0 | 0.00 | 0.03 | 0.03 | 29 | 1007.5 |
| 20260506015858 | 25 | 205 | 1.6 | 8.0 | 0.00 | 0.03 | 0.03 | 29 | 1007.5 |
| 20260506015758 | 25 | 205 | 1.6 | 8.0 | 0.00 | 0.03 | 0.03 | 30 | 1007.4 |
| 20260506015655 | 25 | 204 | 0.0 | 8.0 | 0.00 | 0.03 | 0.03 | 30 | 1007.4 |
| 20260506015556 | 25 | 178 | 3.2 | 6.4 | 0.00 | 0.03 | 0.03 | 30 | 1007.4 |
| 20260506015457 | 25 | 175 | 1.6 | 6.4 | 0.00 | 0.03 | 0.03 | 31 | 1007.5 |
| 20260506015257 | 25 | 173 | 0.0 | 4.8 | 0.00 | 0.03 | 0.03 | 31 | 1007.4 |
| 20260506015158 | 25 | 173 | 1.6 | 4.8 | 0.00 | 0.03 | 0.03 | 32 | 1007.4 |
| 20260506015058 | 25 | 173 | 0.0 | 4.8 | 0.00 | 0.03 | 0.03 | 32 | 1007.4 |
| 20260506014959 | 25 | 173 | 0.0 | 4.8 | 0.00 | 0.03 | 0.03 | 32 | 1007.3 |
| 20260506014858 | 25 | 173 | 1.6 | 4.8 | 0.00 | 0.03 | 0.03 | 32 | 1007.3 |
| 20260506014657 | 25 | 173 | 0.0 | 4.8 | 0.00 | 0.03 | 0.03 | 33 | 1007.3 |
| 20260506014558 | 25 | 173 | 1.6 | 4.8 | 0.00 | 0.03 | 0.03 | 33 | 1007.2 |
| 20260506014458 | 26 | 173 | 1.6 | 4.8 | 0.00 | 0.03 | 0.03 | 33 | 1007.3 |
| 20260506014356 | 26 | 173 | 0.0 | 4.8 | 0.00 | 0.03 | 0.03 | 34 | 1007.2 |
| 20260506014257 | 26 | 173 | 0.0 | 4.8 | 0.00 | 0.03 | 0.03 | 34 | 1007.2 |
| 20260506014158 | 26 | 173 | 0.0 | 4.8 | 0.00 | 0.03 | 0.03 | 34 | 1007.2 |
| 20260506013957 | 26 | 173 | 1.6 | 4.8 | 0.00 | 0.03 | 0.03 | 34 | 1007.1 |
| 20260506013758 | 26 | 173 | 0.0 | 6.4 | 0.00 | 0.03 | 0.03 | 35 | 1007.1 |
| 20260506013655 | 26 | 173 | 4.8 | 6.4 | 0.00 | 0.03 | 0.03 | 35 | 1007.1 |
| 20260506013556 | 26 | 173 | 3.2 | 6.4 | 0.00 | 0.03 | 0.03 | 35 | 1007.1 |
| 20260506013358 | 26 | 173 | 0.0 | 6.4 | 0.00 | 0.03 | 0.03 | 35 | 1007.0 |
| 20260506013258 | 26 | 173 | 1.6 | 6.4 | 0.00 | 0.03 | 0.03 | 36 | 1007.0 |
| 20260506013056 | 26 | 173 | 1.6 | 6.4 | 0.00 | 0.03 | 0.03 | 36 | 1007.0 |
| 20260506012959 | 26 | 164 | 0.0 | 6.4 | 0.00 | 0.03 | 0.03 | 37 | 1007.0 |
| 20260506012756 | 26 | 164 | 1.6 | 8.0 | 0.00 | 0.03 | 0.03 | 37 | 1007.0 |
| 20260506012558 | 26 | 164 | 0.0 | 8.0 | 0.00 | 0.03 | 0.03 | 38 | 1006.9 |
| 20260506012356 | 26 | 164 | 1.6 | 8.0 | 0.00 | 0.03 | 0.03 | 38 | 1007.0 |
| 20260506012158 | 26 | 153 | 4.8 | 8.0 | 0.00 | 0.03 | 0.03 | 38 | 1006.9 |
| 20260506012056 | 26 | 151 | 1.6 | 8.0 | 0.00 | 0.03 | 0.03 | 39 | 1006.9 |
| 20260506011957 | 26 | 151 | 0.0 | 8.0 | 0.00 | 0.03 | 0.03 | 39 | 1006.9 |
| 20260506011857 | 26 | 219 | 1.6 | 8.0 | 0.00 | 0.03 | 0.03 | 39 | 1006.8 |
| 20260506011758 | 26 | 220 | 4.8 | 8.0 | 0.00 | 0.03 | 0.03 | 39 | 1006.8 |
| 20260506011657 | 26 | 233 | 0.0 | 8.0 | 0.00 | 0.03 | 0.03 | 40 | 1006.8 |
| 20260506011556 | 26 | 233 | 1.6 | 8.0 | 0.00 | 0.03 | 0.03 | 40 | 1006.8 |
| 20260506011456 | 26 | 233 | 1.6 | 8.0 | 0.00 | 0.03 | 0.03 | 40 | 1006.9 |
| 20260506011357 | 26 | 233 | 1.6 | 8.0 | 0.00 | 0.03 | 0.03 | 41 | 1006.8 |
| 20260506011258 | 26 | 233 | 6.4 | 8.0 | 0.00 | 0.03 | 0.03 | 41 | 1006.9 |
| 20260506011055 | 26 | 219 | 3.2 | 6.4 | 0.00 | 0.03 | 0.03 | 42 | 1006.8 |
| 20260506010856 | 26 | 225 | 0.0 | 6.4 | 0.00 | 0.03 | 0.03 | 42 | 1006.8 |
| 20260506010657 | 26 | 225 | 0.0 | 6.4 | 0.00 | 0.03 | 0.03 | 42 | 1006.8 |
| 20260506010558 | 26 | 225 | 0.0 | 6.4 | 0.00 | 0.03 | 0.03 | 43 | 1006.8 |
| 20260506010458 | 26 | 225 | 0.0 | 6.4 | 0.00 | 0.03 | 0.03 | 43 | 1006.9 |
| 20260506010255 | 26 | 227 | 0.0 | 8.0 | 0.00 | 0.03 | 0.03 | 43 | 1006.9 |
| 20260506010157 | 26 | 194 | 0.0 | 9.7 | 0.00 | 0.03 | 0.03 | 43 | 1006.8 |
| 20260506010057 | 26 | 194 | 3.2 | 9.7 | 0.00 | 0.03 | 0.03 | 44 | 1006.8 |
| 20260506010004 | 26 | 240 | 1.6 | 9.7 | 0.00 | 0.03 | 0.03 | 44 | 1006.8 |
| 20260506005857 | 26 | 240 | 0.0 | 9.7 | 0.00 | 0.03 | 0.03 | 44 | 1006.8 |
| 20260506005757 | 26 | 240 | 0.0 | 9.7 | 0.00 | 0.03 | 0.03 | 44 | 1006.8 |
| 20260506005658 | 26 | 240 | 0.0 | 9.7 | 0.00 | 0.03 | 0.03 | 44 | 1006.8 |
| 20260506005558 | 26 | 240 | 6.4 | 9.7 | 0.00 | 0.03 | 0.03 | 45 | 1006.7 |
| 20260506005459 | 26 | 240 | 4.8 | 12.9 | 0.00 | 0.03 | 0.03 | 45 | 1006.7 |
| 20260506005357 | 26 | 240 | 1.6 | 12.9 | 0.00 | 0.03 | 0.03 | 45 | 1006.6 |
| 20260506005256 | 26 | 162 | 6.4 | 12.9 | 0.00 | 0.03 | 0.03 | 45 | 1006.6 |
| 20260506005058 | 26 | 162 | 3.2 | 12.9 | 0.00 | 0.03 | 0.03 | 45 | 1006.6 |
| 20260506004958 | 26 | 162 | 1.6 | 12.9 | 0.00 | 0.03 | 0.03 | 45 | 1006.6 |
| 20260506004857 | 26 | 162 | 0.0 | 12.9 | 0.00 | 0.03 | 0.03 | 46 | 1006.6 |
| 20260506004800 | 26 | 162 | 1.6 | 12.9 | 0.00 | 0.03 | 0.03 | 46 | 1006.6 |
| 20260506004657 | 26 | 162 | 6.4 | 12.9 | 0.00 | 0.03 | 0.03 | 46 | 1006.6 |
| 20260506004557 | 26 | 212 | 3.2 | 9.7 | 0.00 | 0.03 | 0.03 | 46 | 1006.6 |
| 20260506004300 | 26 | 240 | 1.6 | 9.7 | 0.00 | 0.03 | 0.03 | 46 | 1006.5 |
| 20260506004158 | 26 | 240 | 0.0 | 9.7 | 0.00 | 0.03 | 0.03 | 46 | 1006.4 |
| 20260506004057 | 26 | 240 | 0.0 | 9.7 | 0.00 | 0.03 | 0.03 | 46 | 1006.4 |
| 20260506004000 | 26 | 240 | 0.0 | 9.7 | 0.00 | 0.03 | 0.03 | 46 | 1006.4 |
| 20260506003859 | 26 | 240 | 4.8 | 9.7 | 0.00 | 0.03 | 0.03 | 47 | 1006.4 |
| 20260506003757 | 26 | 202 | 3.2 | 9.7 | 0.00 | 0.03 | 0.03 | 47 | 1006.4 |
| 20260506003656 | 26 | 175 | 6.4 | 9.7 | 0.00 | 0.03 | 0.03 | 47 | 1006.4 |
| 20260506003559 | 26 | 208 | 0.0 | 8.0 | 0.00 | 0.03 | 0.03 | 47 | 1006.4 |
| 20260506003500 | 26 | 206 | 3.2 | 8.0 | 0.00 | 0.03 | 0.03 | 47 | 1006.5 |
| 20260506003257 | 26 | 208 | 1.6 | 8.0 | 0.00 | 0.03 | 0.03 | 47 | 1006.4 |
| 20260506003158 | 26 | 179 | 3.2 | 8.0 | 0.00 | 0.03 | 0.03 | 48 | 1006.4 |
| 20260506002959 | 26 | 173 | 4.8 | 8.0 | 0.00 | 0.03 | 0.03 | 48 | 1006.4 |
| 20260506002857 | 26 | 173 | 0.0 | 8.0 | 0.00 | 0.03 | 0.03 | 48 | 1006.4 |
| 20260506002757 | 26 | 173 | 4.8 | 8.0 | 0.00 | 0.03 | 0.03 | 49 | 1006.4 |
| 20260506002658 | 26 | 217 | 1.6 | 6.4 | 0.00 | 0.03 | 0.03 | 49 | 1006.4 |
| 20260506002602 | 26 | 217 | 3.2 | 8.0 | 0.00 | 0.03 | 0.03 | 49 | 1006.4 |
| 20260506002457 | 26 | 218 | 1.6 | 8.0 | 0.00 | 0.03 | 0.03 | 49 | 1006.4 |
| 20260506002358 | 26 | 189 | 1.6 | 8.0 | 0.00 | 0.03 | 0.03 | 49 | 1006.3 |
| 20260506002258 | 26 | 189 | 0.0 | 8.0 | 0.00 | 0.03 | 0.03 | 49 | 1006.3 |
| 20260506002159 | 26 | 189 | 1.6 | 8.0 | 0.00 | 0.03 | 0.03 | 50 | 1006.4 |
| 20260506002057 | 26 | 188 | 3.2 | 8.0 | 0.00 | 0.03 | 0.03 | 50 | 1006.4 |
| 20260506001959 | 26 | 187 | 4.8 | 8.0 | 0.00 | 0.03 | 0.03 | 50 | 1006.4 |
| 20260506001857 | 26 | 178 | 3.2 | 8.0 | 0.00 | 0.03 | 0.03 | 50 | 1006.3 |
| 20260506001758 | 26 | 167 | 3.2 | 8.0 | 0.00 | 0.03 | 0.03 | 50 | 1006.3 |
| 20260506001657 | 26 | 167 | 1.6 | 8.0 | 0.00 | 0.03 | 0.03 | 51 | 1006.3 |
| 20260506001557 | 26 | 195 | 6.4 | 8.0 | 0.00 | 0.03 | 0.03 | 50 | 1006.4 |
| 20260506001457 | 26 | 169 | 1.6 | 6.4 | 0.00 | 0.03 | 0.03 | 51 | 1006.3 |
| 20260506001357 | 26 | 169 | 4.8 | 6.4 | 0.00 | 0.03 | 0.03 | 51 | 1006.4 |
| 20260506001257 | 26 | 169 | 0.0 | 6.4 | 0.00 | 0.03 | 0.03 | 51 | 1006.4 |
| 20260506001157 | 26 | 169 | 1.6 | 6.4 | 0.00 | 0.03 | 0.03 | 51 | 1006.4 |
| 20260506001057 | 26 | 169 | 0.0 | 6.4 | 0.00 | 0.03 | 0.03 | 51 | 1006.4 |
| 20260506000958 | 26 | 169 | 0.0 | 6.4 | 0.00 | 0.03 | 0.03 | 51 | 1006.4 |
| 20260506000857 | 26 | 167 | 0.0 | 6.4 | 0.00 | 0.03 | 0.03 | 51 | 1006.4 |
| 20260506000757 | 26 | 167 | 3.2 | 8.0 | 0.00 | 0.03 | 0.03 | 51 | 1006.3 |
| 20260506000657 | 26 | 167 | 0.0 | 8.0 | 0.00 | 0.03 | 0.03 | 51 | 1006.3 |
| 20260506000457 | 26 | 167 | 3.2 | 12.9 | 0.00 | 0.03 | 0.03 | 51 | 1006.3 |
| 20260506000257 | 26 | 165 | 0.0 | 12.9 | 0.00 | 0.03 | 0.03 | 51 | 1006.2 |
| 20260506000157 | 27 | 165 | 0.0 | 14.5 | 0.00 | 0.03 | 0.03 | 51 | 1006.2 |
| 20260506000057 | 27 | 161 | 6.4 | 14.5 | 0.00 | 0.03 | 0.03 | 52 | 1006.2 |
| 20260505235657 | 27 | 240 | 12.9 | 14.5 | 0.00 | 0.03 | 0.03 | 52 | 1006.2 |
| 20260505235357 | 27 | 169 | 1.6 | 14.5 | 0.00 | 0.03 | 0.03 | 53 | 1006.1 |
| 20260505235158 | 27 | 234 | 0.0 | 8.0 | 0.00 | 0.03 | 0.03 | 53 | 1006.2 |
| 20260505235057 | 27 | 234 | 1.6 | 8.0 | 0.00 | 0.03 | 0.03 | 53 | 1006.2 |
| 20260505234959 | 27 | 235 | 1.6 | 8.0 | 0.00 | 0.03 | 0.03 | 54 | 1006.2 |
| 20260505234858 | 27 | 235 | 6.4 | 8.0 | 0.00 | 0.03 | 0.03 | 54 | 1006.2 |
| 20260505234757 | 27 | 232 | 3.2 | 8.0 | 0.00 | 0.03 | 0.03 | 54 | 1006.2 |
| 20260505234557 | 27 | 202 | 8.0 | 8.0 | 0.00 | 0.03 | 0.03 | 54 | 1006.3 |
| 20260505234457 | 27 | 184 | 1.6 | 6.4 | 0.00 | 0.03 | 0.03 | 54 | 1006.3 |
| 20260505234357 | 27 | 189 | 1.6 | 6.4 | 0.00 | 0.03 | 0.03 | 54 | 1006.3 |
| 20260505234057 | 27 | 189 | 0.0 | 6.4 | 0.00 | 0.03 | 0.03 | 54 | 1006.3 |
| 20260505233958 | 27 | 189 | 1.6 | 6.4 | 0.00 | 0.03 | 0.03 | 53 | 1006.3 |
| 20260505233857 | 27 | 229 | 0.0 | 4.8 | 0.00 | 0.03 | 0.03 | 53 | 1006.2 |
| 20260505233656 | 27 | 210 | 0.0 | 8.0 | 0.00 | 0.03 | 0.03 | 53 | 1006.2 |
| 20260505233457 | 27 | 210 | 4.8 | 8.0 | 0.00 | 0.03 | 0.03 | 54 | 1006.2 |
| 20260505233358 | 27 | 211 | 3.2 | 8.0 | 0.00 | 0.03 | 0.03 | 54 | 1006.3 |
| 20260505233256 | 27 | 211 | 0.0 | 8.0 | 0.00 | 0.03 | 0.03 | 54 | 1006.2 |
| 20260505233157 | 27 | 211 | 0.0 | 8.0 | 0.00 | 0.03 | 0.03 | 54 | 1006.3 |
| 20260505233056 | 27 | 211 | 0.0 | 8.0 | 0.00 | 0.03 | 0.03 | 54 | 1006.2 |
| 20260505232757 | 27 | 169 | 0.0 | 6.4 | 0.00 | 0.03 | 0.03 | 54 | 1006.2 |
| 20260505232657 | 27 | 169 | 1.6 | 6.4 | 0.00 | 0.03 | 0.03 | 54 | 1006.2 |
| 20260505232559 | 27 | 169 | 1.6 | 9.7 | 0.00 | 0.03 | 0.03 | 54 | 1006.2 |
| 20260505232457 | 27 | 208 | 1.6 | 9.7 | 0.00 | 0.03 | 0.03 | 54 | 1006.2 |
| 20260505232357 | 27 | 222 | 0.0 | 9.7 | 0.00 | 0.03 | 0.03 | 54 | 1006.1 |
| 20260505232257 | 27 | 221 | 3.2 | 9.7 | 0.00 | 0.03 | 0.03 | 54 | 1006.2 |
| 20260505232159 | 27 | 240 | 0.0 | 9.7 | 0.00 | 0.03 | 0.03 | 54 | 1006.2 |
| 20260505231959 | 27 | 240 | 0.0 | 11.3 | 0.00 | 0.03 | 0.03 | 55 | 1006.2 |
| 20260505231757 | 27 | 240 | 3.2 | 11.3 | 0.00 | 0.03 | 0.03 | 55 | 1006.3 |
| 20260505231656 | 27 | 188 | 4.8 | 11.3 | 0.00 | 0.03 | 0.03 | 55 | 1006.2 |
| 20260505231456 | 27 | 184 | 1.6 | 11.3 | 0.00 | 0.03 | 0.03 | 55 | 1006.3 |
| 20260505231357 | 27 | 184 | 3.2 | 11.3 | 0.00 | 0.03 | 0.03 | 55 | 1006.2 |
| 20260505231258 | 27 | 178 | 0.0 | 11.3 | 0.00 | 0.03 | 0.03 | 55 | 1006.2 |
| 20260505231159 | 27 | 179 | 0.0 | 11.3 | 0.00 | 0.03 | 0.03 | 55 | 1006.3 |
| 20260505231057 | 27 | 166 | 8.0 | 8.0 | 0.00 | 0.03 | 0.03 | 55 | 1006.3 |
| 20260505230959 | 27 | 168 | 6.4 | 9.7 | 0.00 | 0.03 | 0.03 | 55 | 1006.2 |
| 20260505230857 | 27 | 167 | 3.2 | 9.7 | 0.00 | 0.03 | 0.03 | 55 | 1006.3 |
| 20260505230758 | 27 | 174 | 3.2 | 9.7 | 0.00 | 0.03 | 0.03 | 55 | 1006.2 |
| 20260505230657 | 27 | 171 | 3.2 | 9.7 | 0.00 | 0.03 | 0.03 | 54 | 1006.3 |
| 20260505230557 | 27 | 148 | 6.4 | 11.3 | 0.00 | 0.03 | 0.03 | 54 | 1006.2 |
| 20260505230457 | 27 | 174 | 1.6 | 11.3 | 0.00 | 0.03 | 0.03 | 54 | 1006.2 |
| 20260505230356 | 27 | 173 | 1.6 | 11.3 | 0.00 | 0.03 | 0.03 | 54 | 1006.3 |
| 20260505230159 | 27 | 169 | 0.0 | 11.3 | 0.00 | 0.03 | 0.03 | 53 | 1006.2 |
| 20260505230057 | 27 | 156 | 6.4 | 11.3 | 0.00 | 0.03 | 0.03 | 53 | 1006.2 |
| 20260505230005 | 27 | 161 | 0.0 | 11.3 | 0.00 | 0.03 | 0.03 | 53 | 1006.2 |
| 20260505225857 | 27 | 199 | 6.4 | 11.3 | 0.00 | 0.03 | 0.03 | 53 | 1006.2 |
| 20260505225756 | 27 | 213 | 11.3 | 11.3 | 0.00 | 0.03 | 0.03 | 53 | 1006.2 |
| 20260505225558 | 27 | 210 | 0.0 | 8.0 | 0.00 | 0.03 | 0.03 | 53 | 1006.2 |
| 20260505225458 | 27 | 210 | 3.2 | 8.0 | 0.00 | 0.03 | 0.03 | 53 | 1006.2 |
| 20260505225356 | 27 | 250 | 3.2 | 8.0 | 0.00 | 0.03 | 0.03 | 53 | 1006.2 |
| 20260505225255 | 27 | 218 | 3.2 | 8.0 | 0.00 | 0.03 | 0.03 | 53 | 1006.2 |
| 20260505225156 | 27 | 167 | 1.6 | 6.4 | 0.00 | 0.03 | 0.03 | 53 | 1006.3 |
| 20260505225058 | 27 | 167 | 1.6 | 6.4 | 0.00 | 0.03 | 0.03 | 53 | 1006.3 |
| 20260505224959 | 27 | 160 | 4.8 | 6.4 | 0.00 | 0.03 | 0.03 | 53 | 1006.2 |
| 20260505224756 | 27 | 162 | 1.6 | 8.0 | 0.00 | 0.03 | 0.03 | 53 | 1006.4 |
| 20260505224657 | 27 | 162 | 1.6 | 8.0 | 0.00 | 0.03 | 0.03 | 53 | 1006.4 |
| 20260505224558 | 27 | 203 | 1.6 | 8.0 | 0.00 | 0.03 | 0.03 | 53 | 1006.5 |
| 20260505224458 | 27 | 204 | 1.6 | 8.0 | 0.00 | 0.03 | 0.03 | 53 | 1006.4 |
| 20260505224356 | 27 | 204 | 3.2 | 8.0 | 0.00 | 0.03 | 0.03 | 54 | 1006.5 |
| 20260505224255 | 27 | 203 | 1.6 | 11.3 | 0.00 | 0.03 | 0.03 | 54 | 1006.4 |
| 20260505224158 | 27 | 129 | 1.6 | 11.3 | 0.00 | 0.03 | 0.03 | 54 | 1006.4 |
| 20260505223957 | 27 | 207 | 4.8 | 11.3 | 0.00 | 0.03 | 0.03 | 53 | 1006.4 |
| 20260505223855 | 27 | 167 | 1.6 | 11.3 | 0.00 | 0.03 | 0.03 | 52 | 1006.4 |
| 20260505223758 | 27 | 167 | 3.2 | 11.3 | 0.00 | 0.03 | 0.03 | 52 | 1006.4 |
| 20260505223657 | 27 | 155 | 4.8 | 11.3 | 0.00 | 0.03 | 0.03 | 52 | 1006.4 |
| 20260505223556 | 27 | 154 | 1.6 | 11.3 | 0.00 | 0.03 | 0.03 | 52 | 1006.3 |
| 20260505223456 | 27 | 199 | 1.6 | 11.3 | 0.00 | 0.03 | 0.03 | 52 | 1006.3 |
| 20260505223358 | 27 | 199 | 3.2 | 11.3 | 0.00 | 0.03 | 0.03 | 52 | 1006.3 |
| 20260505223155 | 27 | 199 | 1.6 | 11.3 | 0.00 | 0.03 | 0.03 | 52 | 1006.2 |
| 20260505222959 | 27 | 199 | 0.0 | 11.3 | 0.00 | 0.03 | 0.03 | 53 | 1006.3 |
| 20260505222857 | 27 | 200 | 3.2 | 11.3 | 0.00 | 0.03 | 0.03 | 53 | 1006.3 |
| 20260505222655 | 27 | 229 | 3.2 | 11.3 | 0.00 | 0.03 | 0.03 | 53 | 1006.4 |
| 20260505222558 | 27 | 206 | 1.6 | 11.3 | 0.00 | 0.03 | 0.03 | 53 | 1006.3 |
| 20260505222457 | 27 | 206 | 3.2 | 11.3 | 0.00 | 0.03 | 0.03 | 53 | 1006.4 |
| 20260505222355 | 27 | 221 | 3.2 | 11.3 | 0.00 | 0.03 | 0.03 | 53 | 1006.4 |
| 20260505222255 | 27 | 159 | 1.6 | 11.3 | 0.00 | 0.03 | 0.03 | 53 | 1006.4 |
| 20260505222158 | 27 | 212 | 3.2 | 11.3 | 0.00 | 0.03 | 0.03 | 53 | 1006.3 |
| 20260505222057 | 27 | 233 | 0.0 | 11.3 | 0.00 | 0.03 | 0.03 | 53 | 1006.3 |
| 20260505222001 | 27 | 233 | 1.6 | 11.3 | 0.00 | 0.03 | 0.03 | 53 | 1006.3 |
| 20260505221758 | 27 | 235 | 0.0 | 11.3 | 0.00 | 0.03 | 0.03 | 53 | 1006.4 |
| 20260505221657 | 27 | 235 | 3.2 | 11.3 | 0.00 | 0.03 | 0.03 | 54 | 1006.4 |
| 20260505221558 | 27 | 206 | 9.7 | 11.3 | 0.00 | 0.03 | 0.03 | 54 | 1006.4 |
| 20260505221456 | 27 | 168 | 3.2 | 11.3 | 0.00 | 0.03 | 0.03 | 54 | 1006.4 |
| 20260505221358 | 27 | 168 | 1.6 | 11.3 | 0.00 | 0.03 | 0.03 | 54 | 1006.4 |
| 20260505221156 | 27 | 163 | 0.0 | 11.3 | 0.00 | 0.03 | 0.03 | 54 | 1006.6 |
| 20260505221055 | 27 | 162 | 0.0 | 11.3 | 0.00 | 0.03 | 0.03 | 54 | 1006.6 |
| 20260505220959 | 27 | 166 | 0.0 | 11.3 | 0.00 | 0.03 | 0.03 | 55 | 1006.6 |
| 20260505220756 | 27 | 166 | 3.2 | 11.3 | 0.00 | 0.03 | 0.03 | 55 | 1006.5 |
| 20260505220656 | 27 | 169 | 4.8 | 11.3 | 0.00 | 0.03 | 0.03 | 55 | 1006.5 |
| 20260505220558 | 27 | 191 | 4.8 | 9.7 | 0.00 | 0.03 | 0.03 | 55 | 1006.5 |
| 20260505220457 | 27 | 236 | 1.6 | 9.7 | 0.00 | 0.03 | 0.03 | 55 | 1006.5 |
| 20260505220255 | 27 | 250 | 1.6 | 9.7 | 0.00 | 0.03 | 0.03 | 55 | 1006.6 |
| 20260505220158 | 28 | 189 | 1.6 | 8.0 | 0.00 | 0.03 | 0.03 | 54 | 1006.6 |
| 20260505220057 | 28 | 217 | 1.6 | 8.0 | 0.00 | 0.03 | 0.03 | 54 | 1006.6 |
| 20260505215855 | 28 | 209 | 1.6 | 8.0 | 0.00 | 0.03 | 0.03 | 53 | 1006.7 |
| 20260505215756 | 28 | 209 | 1.6 | 8.0 | 0.00 | 0.03 | 0.03 | 53 | 1006.6 |
| 20260505215558 | 28 | 209 | 0.0 | 8.0 | 0.00 | 0.03 | 0.03 | 53 | 1006.6 |
| 20260505215456 | 28 | 209 | 1.6 | 8.0 | 0.00 | 0.03 | 0.03 | 54 | 1006.5 |
| 20260505215356 | 28 | 191 | 0.0 | 8.0 | 0.00 | 0.03 | 0.03 | 54 | 1006.6 |
| 20260505215257 | 28 | 191 | 1.6 | 8.0 | 0.00 | 0.03 | 0.03 | 54 | 1006.5 |
| 20260505215158 | 28 | 195 | 3.2 | 8.0 | 0.00 | 0.03 | 0.03 | 54 | 1006.5 |
| 20260505215055 | 28 | 156 | 1.6 | 6.4 | 0.00 | 0.03 | 0.03 | 54 | 1006.6 |
| 20260505214957 | 28 | 262 | 1.6 | 6.4 | 0.00 | 0.03 | 0.03 | 54 | 1006.6 |
| 20260505214858 | 28 | 197 | 3.2 | 6.4 | 0.00 | 0.03 | 0.03 | 54 | 1006.6 |
| 20260505214758 | 28 | 198 | 0.0 | 6.4 | 0.00 | 0.03 | 0.03 | 54 | 1006.6 |
| 20260505214655 | 28 | 198 | 0.0 | 6.4 | 0.00 | 0.03 | 0.03 | 54 | 1006.6 |
| 20260505214556 | 28 | 198 | 3.2 | 6.4 | 0.00 | 0.03 | 0.03 | 54 | 1006.6 |
| 20260505214358 | 28 | 189 | 1.6 | 8.0 | 0.00 | 0.03 | 0.03 | 55 | 1006.7 |
| 20260505214255 | 28 | 189 | 1.6 | 8.0 | 0.00 | 0.03 | 0.03 | 55 | 1006.7 |
| 20260505214156 | 28 | 190 | 4.8 | 8.0 | 0.00 | 0.03 | 0.03 | 55 | 1006.7 |
| 20260505214058 | 28 | 204 | 1.6 | 8.0 | 0.00 | 0.03 | 0.03 | 55 | 1006.7 |
| 20260505214000 | 28 | 204 | 3.2 | 8.0 | 0.00 | 0.03 | 0.03 | 55 | 1006.7 |
| 20260505213856 | 28 | 202 | 1.6 | 8.0 | 0.00 | 0.03 | 0.03 | 55 | 1006.8 |
| 20260505213755 | 28 | 202 | 1.6 | 8.0 | 0.00 | 0.03 | 0.03 | 56 | 1006.8 |
| 20260505213655 | 28 | 148 | 1.6 | 8.0 | 0.00 | 0.03 | 0.03 | 56 | 1006.8 |
| 20260505213558 | 28 | 175 | 1.6 | 8.0 | 0.00 | 0.03 | 0.03 | 56 | 1006.8 |
| 20260505213458 | 28 | 173 | 1.6 | 8.0 | 0.00 | 0.03 | 0.03 | 56 | 1006.8 |
| 20260505213357 | 28 | 173 | 1.6 | 8.0 | 0.00 | 0.03 | 0.03 | 57 | 1006.9 |
| 20260505213258 | 28 | 175 | 4.8 | 8.0 | 0.00 | 0.03 | 0.03 | 56 | 1006.9 |
| 20260505212957 | 28 | 182 | 3.2 | 11.3 | 0.00 | 0.03 | 0.03 | 56 | 1007.0 |
| 20260505212856 | 28 | 182 | 1.6 | 11.3 | 0.00 | 0.03 | 0.03 | 57 | 1007.0 |
| 20260505212759 | 28 | 176 | 1.6 | 11.3 | 0.00 | 0.03 | 0.03 | 57 | 1007.0 |
| 20260505212657 | 28 | 185 | 4.8 | 11.3 | 0.00 | 0.03 | 0.03 | 57 | 1007.0 |
| 20260505212556 | 28 | 196 | 1.6 | 11.3 | 0.00 | 0.03 | 0.03 | 56 | 1007.0 |
| 20260505212457 | 28 | 196 | 1.6 | 11.3 | 0.00 | 0.03 | 0.03 | 57 | 1007.0 |
| 20260505212358 | 28 | 196 | 1.6 | 11.3 | 0.00 | 0.03 | 0.03 | 57 | 1007.0 |
| 20260505212258 | 28 | 170 | 3.2 | 11.3 | 0.00 | 0.03 | 0.03 | 57 | 1007.0 |
| 20260505212156 | 28 | 181 | 4.8 | 8.0 | 0.00 | 0.03 | 0.03 | 57 | 1007.0 |
| 20260505212055 | 28 | 185 | 0.0 | 8.0 | 0.00 | 0.03 | 0.03 | 57 | 1007.0 |
| 20260505211959 | 28 | 185 | 1.6 | 8.0 | 0.00 | 0.03 | 0.03 | 58 | 1007.0 |
| 20260505211858 | 28 | 177 | 1.6 | 8.0 | 0.00 | 0.03 | 0.03 | 58 | 1007.0 |
| 20260505211756 | 28 | 218 | 0.0 | 8.0 | 0.00 | 0.03 | 0.03 | 58 | 1007.0 |
| 20260505211558 | 28 | 217 | 3.2 | 9.7 | 0.00 | 0.03 | 0.03 | 58 | 1007.0 |
| 20260505211458 | 28 | 127 | 1.6 | 9.7 | 0.00 | 0.03 | 0.03 | 58 | 1007.0 |
| 20260505211255 | 28 | 164 | 3.2 | 9.7 | 0.00 | 0.03 | 0.03 | 58 | 1007.0 |
| 20260505211158 | 28 | 163 | 4.8 | 9.7 | 0.00 | 0.03 | 0.03 | 58 | 1007.0 |
| 20260505211057 | 28 | 163 | 1.6 | 9.7 | 0.00 | 0.03 | 0.03 | 57 | 1007.0 |
| 20260505210957 | 28 | 161 | 3.2 | 11.3 | 0.00 | 0.03 | 0.03 | 58 | 1007.1 |
| 20260505210855 | 28 | 159 | 3.2 | 11.3 | 0.00 | 0.03 | 0.03 | 57 | 1007.1 |
| 20260505210756 | 28 | 169 | 4.8 | 11.3 | 0.00 | 0.03 | 0.03 | 56 | 1007.1 |
| 20260505210556 | 28 | 183 | 1.6 | 11.3 | 0.00 | 0.03 | 0.03 | 57 | 1007.1 |
| 20260505210358 | 28 | 181 | 3.2 | 11.3 | 0.00 | 0.03 | 0.03 | 56 | 1007.1 |
| 20260505210257 | 28 | 181 | 0.0 | 11.3 | 0.00 | 0.03 | 0.03 | 57 | 1007.1 |
| 20260505210158 | 28 | 183 | 4.8 | 11.3 | 0.00 | 0.03 | 0.03 | 56 | 1007.2 |
| 20260505210055 | 28 | 250 | 1.6 | 9.7 | 0.00 | 0.03 | 0.03 | 56 | 1007.2 |
| 20260505210009 | 28 | 250 | 0.0 | 9.7 | 0.00 | 0.03 | 0.03 | 56 | 1007.2 |
| 20260505205857 | 28 | 250 | 6.4 | 9.7 | 0.00 | 0.03 | 0.03 | 56 | 1007.3 |
| 20260505205458 | 28 | 339 | 3.2 | 9.7 | 0.00 | 0.03 | 0.03 | 55 | 1007.4 |
| 20260505205357 | 28 | 341 | 1.6 | 9.7 | 0.00 | 0.03 | 0.03 | 55 | 1007.3 |
| 20260505205156 | 28 | 178 | 4.8 | 9.7 | 0.00 | 0.03 | 0.03 | 56 | 1007.3 |
| 20260505205056 | 28 | 177 | 8.0 | 9.7 | 0.00 | 0.03 | 0.03 | 55 | 1007.4 |
| 20260505204959 | 28 | 225 | 3.2 | 9.7 | 0.00 | 0.03 | 0.03 | 55 | 1007.4 |
| 20260505204855 | 28 | 179 | 0.0 | 8.0 | 0.00 | 0.03 | 0.03 | 55 | 1007.3 |
| 20260505204756 | 28 | 183 | 0.0 | 8.0 | 0.00 | 0.03 | 0.03 | 55 | 1007.3 |
| 20260505204657 | 28 | 184 | 3.2 | 8.0 | 0.00 | 0.03 | 0.03 | 55 | 1007.3 |
| 20260505204556 | 28 | 186 | 1.6 | 8.0 | 0.00 | 0.03 | 0.03 | 55 | 1007.3 |
| 20260505204456 | 28 | 230 | 4.8 | 8.0 | 0.00 | 0.03 | 0.03 | 56 | 1007.3 |
| 20260505204356 | 28 | 230 | 1.6 | 8.0 | 0.00 | 0.03 | 0.03 | 56 | 1007.3 |
| 20260505204257 | 28 | 230 | 0.0 | 12.9 | 0.00 | 0.03 | 0.03 | 56 | 1007.4 |
| 20260505204158 | 28 | 230 | 0.0 | 12.9 | 0.00 | 0.03 | 0.03 | 56 | 1007.4 |
| 20260505204056 | 28 | 240 | 1.6 | 12.9 | 0.00 | 0.03 | 0.03 | 56 | 1007.4 |
| 20260505203957 | 28 | 185 | 4.8 | 12.9 | 0.00 | 0.03 | 0.03 | 55 | 1007.5 |
| 20260505203857 | 28 | 97 | 1.6 | 12.9 | 0.00 | 0.03 | 0.03 | 55 | 1007.6 |
| 20260505203758 | 28 | 97 | 3.2 | 12.9 | 0.00 | 0.03 | 0.03 | 55 | 1007.6 |
| 20260505203655 | 28 | 96 | 1.6 | 12.9 | 0.00 | 0.03 | 0.03 | 54 | 1007.7 |
| 20260505203556 | 28 | 69 | 1.6 | 12.9 | 0.00 | 0.03 | 0.03 | 54 | 1007.7 |
| 20260505203458 | 28 | 69 | 0.0 | 12.9 | 0.00 | 0.03 | 0.03 | 54 | 1007.7 |
| 20260505203255 | 28 | 198 | 0.0 | 11.3 | 0.00 | 0.03 | 0.03 | 54 | 1007.7 |
| 20260505203156 | 28 | 197 | 1.6 | 11.3 | 0.00 | 0.03 | 0.03 | 54 | 1007.7 |
| 20260505203057 | 28 | 218 | 0.0 | 11.3 | 0.00 | 0.03 | 0.03 | 55 | 1007.6 |
| 20260505202959 | 28 | 218 | 1.6 | 11.3 | 0.00 | 0.03 | 0.03 | 55 | 1007.6 |
| 20260505202756 | 28 | 214 | 1.6 | 11.3 | 0.00 | 0.03 | 0.03 | 55 | 1007.7 |
| 20260505202458 | 28 | 183 | 6.4 | 8.0 | 0.00 | 0.03 | 0.03 | 55 | 1007.8 |
| 20260505202355 | 28 | 183 | 6.4 | 8.0 | 0.00 | 0.03 | 0.03 | 55 | 1007.8 |
| 20260505202158 | 28 | 147 | 3.2 | 8.0 | 0.00 | 0.03 | 0.03 | 54 | 1007.8 |
| 20260505202058 | 28 | 146 | 4.8 | 8.0 | 0.00 | 0.03 | 0.03 | 53 | 1007.9 |
| 20260505201959 | 28 | 254 | 3.2 | 11.3 | 0.00 | 0.03 | 0.03 | 53 | 1007.9 |
| 20260505201857 | 28 | 256 | 3.2 | 11.3 | 0.00 | 0.03 | 0.03 | 53 | 1007.9 |
| 20260505201758 | 28 | 273 | 4.8 | 11.3 | 0.00 | 0.03 | 0.03 | 53 | 1007.8 |
| 20260505201655 | 28 | 162 | 6.4 | 11.3 | 0.00 | 0.03 | 0.03 | 52 | 1007.9 |
| 20260505201556 | 28 | 183 | 4.8 | 11.3 | 0.00 | 0.03 | 0.03 | 52 | 1007.9 |
| 20260505201457 | 28 | 198 | 3.2 | 11.3 | 0.00 | 0.03 | 0.03 | 53 | 1007.9 |
| 20260505201358 | 28 | 198 | 4.8 | 11.3 | 0.00 | 0.03 | 0.03 | 53 | 1007.9 |
| 20260505201257 | 28 | 202 | 4.8 | 11.3 | 0.00 | 0.03 | 0.03 | 53 | 1007.9 |
| 20260505201156 | 28 | 196 | 4.8 | 11.3 | 0.00 | 0.03 | 0.03 | 53 | 1007.9 |
| 20260505200959 | 28 | 260 | 4.8 | 8.0 | 0.00 | 0.03 | 0.03 | 53 | 1007.9 |
| 20260505200855 | 28 | 204 | 0.0 | 6.4 | 0.00 | 0.03 | 0.03 | 52 | 1007.9 |
| 20260505200756 | 28 | 204 | 1.6 | 6.4 | 0.00 | 0.03 | 0.03 | 52 | 1007.9 |
| 20260505200558 | 28 | 206 | 3.2 | 6.4 | 0.00 | 0.03 | 0.03 | 52 | 1008.0 |
| 20260505200457 | 28 | 206 | 0.0 | 6.4 | 0.00 | 0.03 | 0.03 | 52 | 1008.0 |
| 20260505200356 | 28 | 206 | 1.6 | 6.4 | 0.00 | 0.03 | 0.03 | 53 | 1008.0 |
| 20260505200255 | 28 | 206 | 0.0 | 8.0 | 0.00 | 0.03 | 0.03 | 54 | 1008.0 |
| 20260505200158 | 28 | 206 | 3.2 | 8.0 | 0.00 | 0.03 | 0.03 | 54 | 1008.0 |
| 20260505200057 | 28 | 177 | 1.6 | 8.0 | 0.00 | 0.03 | 0.03 | 54 | 1008.0 |
| 20260505200004 | 28 | 177 | 4.8 | 8.0 | 0.00 | 0.03 | 0.03 | 54 | 1008.0 |
| 20260505195858 | 28 | 179 | 1.6 | 8.0 | 0.00 | 0.03 | 0.03 | 55 | 1008.0 |
| 20260505195759 | 28 | 178 | 3.2 | 8.0 | 0.00 | 0.03 | 0.03 | 54 | 1007.9 |
| 20260505195658 | 28 | 178 | 0.0 | 8.0 | 0.00 | 0.03 | 0.03 | 55 | 1007.9 |
| 20260505195558 | 28 | 177 | 3.2 | 8.0 | 0.00 | 0.03 | 0.03 | 54 | 1007.9 |
| 20260505195456 | 28 | 179 | 4.8 | 8.0 | 0.00 | 0.03 | 0.03 | 55 | 1007.9 |
| 20260505195357 | 28 | 189 | 4.8 | 8.0 | 0.00 | 0.03 | 0.03 | 55 | 1007.9 |
| 20260505195258 | 28 | 311 | 3.2 | 8.0 | 0.00 | 0.03 | 0.03 | 55 | 1007.9 |
| 20260505195157 | 28 | 314 | 1.6 | 8.0 | 0.00 | 0.03 | 0.03 | 56 | 1007.9 |
| 20260505195013 | 28 | 314 | 0.0 | 11.3 | 0.00 | 0.03 | 0.03 | 55 | 1007.9 |
| 20260505194858 | 28 | 314 | 1.6 | 11.3 | 0.00 | 0.03 | 0.03 | 56 | 1008.0 |
| 20260505194758 | 28 | 314 | 0.0 | 11.3 | 0.00 | 0.03 | 0.03 | 56 | 1008.0 |
| 20260505194658 | 28 | 187 | 1.6 | 11.3 | 0.00 | 0.03 | 0.03 | 56 | 1008.0 |
| 20260505194557 | 28 | 187 | 1.6 | 11.3 | 0.00 | 0.03 | 0.03 | 55 | 1008.1 |
| 20260505194457 | 28 | 170 | 3.2 | 11.3 | 0.00 | 0.03 | 0.03 | 55 | 1008.0 |
| 20260505194358 | 28 | 170 | 3.2 | 11.3 | 0.00 | 0.03 | 0.03 | 55 | 1008.0 |
| 20260505194156 | 28 | 169 | 11.3 | 11.3 | 0.00 | 0.03 | 0.03 | 54 | 1008.1 |
| 20260505194056 | 28 | 257 | 0.0 | 6.4 | 0.00 | 0.03 | 0.03 | 54 | 1008.1 |
| 20260505193958 | 28 | 257 | 0.0 | 8.0 | 0.00 | 0.03 | 0.03 | 54 | 1008.1 |
| 20260505193858 | 28 | 257 | 1.6 | 8.0 | 0.00 | 0.03 | 0.03 | 55 | 1008.1 |
| 20260505193757 | 28 | 257 | 0.0 | 8.0 | 0.00 | 0.03 | 0.03 | 55 | 1008.1 |
| 20260505193658 | 28 | 257 | 4.8 | 8.0 | 0.00 | 0.03 | 0.03 | 55 | 1008.2 |
| 20260505193558 | 28 | 191 | 1.6 | 8.0 | 0.00 | 0.03 | 0.03 | 55 | 1008.2 |
| 20260505193358 | 28 | 185 | 1.6 | 8.0 | 0.00 | 0.03 | 0.03 | 55 | 1008.2 |
| 20260505193256 | 28 | 185 | 4.8 | 8.0 | 0.00 | 0.03 | 0.03 | 54 | 1008.3 |
| 20260505193057 | 28 | 183 | 3.2 | 6.4 | 0.00 | 0.03 | 0.03 | 53 | 1008.2 |
| 20260505192959 | 28 | 183 | 3.2 | 6.4 | 0.00 | 0.03 | 0.03 | 53 | 1008.3 |
| 20260505192856 | 28 | 183 | 1.6 | 6.4 | 0.00 | 0.03 | 0.03 | 53 | 1008.3 |
| 20260505192658 | 28 | 183 | 0.0 | 6.4 | 0.00 | 0.03 | 0.03 | 53 | 1008.3 |
| 20260505192558 | 28 | 183 | 1.6 | 6.4 | 0.00 | 0.03 | 0.03 | 53 | 1008.3 |
| 20260505192458 | 28 | 183 | 4.8 | 6.4 | 0.00 | 0.03 | 0.03 | 53 | 1008.4 |
| 20260505192358 | 28 | 184 | 0.0 | 8.0 | 0.00 | 0.03 | 0.03 | 53 | 1008.4 |
| 20260505192258 | 28 | 184 | 0.0 | 8.0 | 0.00 | 0.03 | 0.03 | 53 | 1008.4 |
| 20260505192058 | 28 | 184 | 1.6 | 11.3 | 0.00 | 0.03 | 0.03 | 52 | 1008.4 |
| 20260505192000 | 28 | 191 | 0.0 | 11.3 | 0.00 | 0.03 | 0.03 | 52 | 1008.4 |
| 20260505191858 | 28 | 155 | 4.8 | 11.3 | 0.00 | 0.03 | 0.03 | 51 | 1008.3 |
| 20260505191758 | 28 | 154 | 0.0 | 11.3 | 0.00 | 0.03 | 0.03 | 51 | 1008.4 |
| 20260505191458 | 28 | 191 | 3.2 | 11.3 | 0.00 | 0.03 | 0.03 | 53 | 1008.3 |
| 20260505191359 | 28 | 191 | 1.6 | 11.3 | 0.00 | 0.03 | 0.03 | 53 | 1008.3 |
| 20260505191258 | 28 | 240 | 9.7 | 11.3 | 0.00 | 0.03 | 0.03 | 52 | 1008.3 |
| 20260505191158 | 28 | 139 | 4.8 | 11.3 | 0.00 | 0.03 | 0.03 | 51 | 1008.3 |
| 20260505190959 | 27 | 177 | 0.0 | 11.3 | 0.00 | 0.03 | 0.03 | 51 | 1008.2 |
| 20260505190858 | 27 | 177 | 3.2 | 11.3 | 0.00 | 0.03 | 0.03 | 50 | 1008.3 |
| 20260505190758 | 27 | 337 | 1.6 | 9.7 | 0.00 | 0.03 | 0.03 | 50 | 1008.3 |
| 20260505190658 | 27 | 337 | 0.0 | 9.7 | 0.00 | 0.03 | 0.03 | 50 | 1008.3 |
| 20260505190558 | 27 | 337 | 0.0 | 9.7 | 0.00 | 0.03 | 0.03 | 49 | 1008.3 |
| 20260505190500 | 27 | 331 | 1.6 | 9.7 | 0.00 | 0.03 | 0.03 | 49 | 1008.4 |
| 20260505190357 | 27 | 331 | 3.2 | 9.7 | 0.00 | 0.03 | 0.03 | 50 | 1008.4 |
| 20260505190258 | 27 | 331 | 0.0 | 9.7 | 0.00 | 0.03 | 0.03 | 49 | 1008.4 |
| 20260505190158 | 27 | 73 | 1.6 | 9.7 | 0.00 | 0.03 | 0.03 | 49 | 1008.5 |
| 20260505190058 | 27 | 77 | 3.2 | 9.7 | 0.00 | 0.03 | 0.03 | 49 | 1008.5 |
| 20260505190000 | 27 | 152 | 3.2 | 9.7 | 0.00 | 0.03 | 0.03 | 49 | 1008.5 |
| 20260505185857 | 27 | 141 | 0.0 | 8.0 | 0.00 | 0.03 | 0.03 | 49 | 1008.5 |
| 20260505185757 | 27 | 141 | 1.6 | 8.0 | 0.00 | 0.03 | 0.03 | 49 | 1008.4 |
| 20260505185558 | 27 | 140 | 0.0 | 8.0 | 0.00 | 0.03 | 0.03 | 49 | 1008.5 |
| 20260505185357 | 27 | 177 | 0.0 | 8.0 | 0.00 | 0.03 | 0.03 | 50 | 1008.5 |
| 20260505185057 | 27 | 235 | 3.2 | 8.0 | 0.00 | 0.03 | 0.03 | 49 | 1008.5 |
| 20260505184958 | 27 | 136 | 4.8 | 6.4 | 0.00 | 0.03 | 0.03 | 48 | 1008.4 |
| 20260505184856 | 27 | 136 | 3.2 | 6.4 | 0.00 | 0.03 | 0.03 | 48 | 1008.5 |
| 20260505184657 | 27 | 134 | 1.6 | 6.4 | 0.00 | 0.03 | 0.03 | 48 | 1008.5 |
| 20260505184558 | 27 | 183 | 4.8 | 6.4 | 0.00 | 0.03 | 0.03 | 48 | 1008.5 |
| 20260505184457 | 27 | 184 | 0.0 | 6.4 | 0.00 | 0.03 | 0.03 | 49 | 1008.5 |
| 20260505184357 | 27 | 184 | 0.0 | 6.4 | 0.00 | 0.03 | 0.03 | 49 | 1008.5 |
| 20260505184256 | 27 | 181 | 3.2 | 6.4 | 0.00 | 0.03 | 0.03 | 49 | 1008.5 |
| 20260505184157 | 27 | 180 | 3.2 | 6.4 | 0.00 | 0.03 | 0.03 | 49 | 1008.5 |
| 20260505184057 | 27 | 179 | 3.2 | 6.4 | 0.00 | 0.03 | 0.03 | 49 | 1008.5 |
| 20260505183957 | 27 | 203 | 3.2 | 6.4 | 0.00 | 0.03 | 0.03 | 49 | 1008.5 |
| 20260505183857 | 27 | 204 | 3.2 | 6.4 | 0.00 | 0.03 | 0.03 | 49 | 1008.5 |
| 20260505183757 | 27 | 204 | 0.0 | 4.8 | 0.00 | 0.03 | 0.03 | 49 | 1008.5 |
| 20260505183556 | 27 | 204 | 3.2 | 4.8 | 0.00 | 0.03 | 0.03 | 50 | 1008.5 |
| 20260505183457 | 27 | 200 | 1.6 | 4.8 | 0.00 | 0.03 | 0.03 | 50 | 1008.5 |
| 20260505183256 | 27 | 233 | 4.8 | 4.8 | 0.00 | 0.03 | 0.03 | 49 | 1008.6 |
| 20260505183157 | 27 | 181 | 3.2 | 4.8 | 0.00 | 0.03 | 0.03 | 47 | 1008.6 |
| 20260505182959 | 27 | 181 | 0.0 | 8.0 | 0.00 | 0.03 | 0.03 | 48 | 1008.7 |
| 20260505182857 | 27 | 203 | 0.0 | 11.3 | 0.00 | 0.03 | 0.03 | 48 | 1008.6 |
| 20260505182655 | 27 | 203 | 3.2 | 11.3 | 0.00 | 0.03 | 0.03 | 49 | 1008.7 |
| 20260505182558 | 27 | 203 | 3.2 | 11.3 | 0.00 | 0.03 | 0.03 | 50 | 1008.7 |
| 20260505182257 | 27 | 137 | 3.2 | 11.3 | 0.00 | 0.03 | 0.03 | 50 | 1008.6 |
| 20260505182157 | 27 | 136 | 4.8 | 11.3 | 0.00 | 0.03 | 0.03 | 50 | 1008.6 |
| 20260505182057 | 27 | 146 | 1.6 | 11.3 | 0.00 | 0.03 | 0.03 | 50 | 1008.6 |
| 20260505181959 | 27 | 167 | 6.4 | 11.3 | 0.00 | 0.03 | 0.03 | 50 | 1008.8 |
| 20260505181856 | 27 | 204 | 3.2 | 11.3 | 0.00 | 0.03 | 0.03 | 49 | 1008.8 |
| 20260505181758 | 27 | 216 | 3.2 | 11.3 | 0.00 | 0.03 | 0.03 | 49 | 1008.8 |
| 20260505181657 | 27 | 159 | 6.4 | 8.0 | 0.00 | 0.03 | 0.03 | 49 | 1008.8 |
| 20260505181556 | 27 | 148 | 8.0 | 8.0 | 0.00 | 0.03 | 0.03 | 48 | 1008.7 |
| 20260505181457 | 27 | 158 | 3.2 | 8.0 | 0.00 | 0.03 | 0.03 | 47 | 1008.7 |
| 20260505181358 | 27 | 158 | 3.2 | 8.0 | 0.00 | 0.03 | 0.03 | 47 | 1008.6 |
| 20260505181255 | 27 | 223 | 1.6 | 8.0 | 0.00 | 0.03 | 0.03 | 47 | 1008.7 |
| 20260505181157 | 27 | 233 | 1.6 | 8.0 | 0.00 | 0.03 | 0.03 | 47 | 1008.7 |
| 20260505181057 | 27 | 194 | 3.2 | 8.0 | 0.00 | 0.03 | 0.03 | 47 | 1008.7 |
| 20260505180959 | 27 | 194 | 0.0 | 8.0 | 0.00 | 0.03 | 0.03 | 47 | 1008.7 |
| 20260505180857 | 27 | 194 | 0.0 | 8.0 | 0.00 | 0.03 | 0.03 | 47 | 1008.7 |
| 20260505180458 | 27 | 183 | 1.6 | 8.0 | 0.00 | 0.03 | 0.03 | 46 | 1008.8 |
| 20260505180358 | 27 | 166 | 1.6 | 8.0 | 0.00 | 0.03 | 0.03 | 46 | 1008.8 |
| 20260505180257 | 27 | 206 | 3.2 | 8.0 | 0.00 | 0.03 | 0.03 | 46 | 1008.8 |
| 20260505180055 | 27 | 164 | 1.6 | 8.0 | 0.00 | 0.03 | 0.03 | 45 | 1008.9 |
| 20260505175857 | 27 | 176 | 1.6 | 9.7 | 0.00 | 0.03 | 0.03 | 44 | 1008.8 |
| 20260505175758 | 27 | 148 | 3.2 | 9.7 | 0.00 | 0.03 | 0.03 | 44 | 1008.8 |
| 20260505175658 | 27 | 148 | 8.0 | 9.7 | 0.00 | 0.03 | 0.03 | 43 | 1008.9 |
| 20260505175557 | 27 | 176 | 1.6 | 9.7 | 0.00 | 0.03 | 0.03 | 43 | 1008.8 |
| 20260505175357 | 27 | 176 | 1.6 | 9.7 | 0.00 | 0.03 | 0.03 | 41 | 1008.9 |
| 20260505175256 | 27 | 176 | 1.6 | 9.7 | 0.03 | 0.03 | 0.03 | 41 | 1008.9 |
| 20260505175157 | 27 | 176 | 0.0 | 9.7 | 0.03 | 0.03 | 0.03 | 41 | 1008.8 |
| 20260505175055 | 26 | 176 | 1.6 | 9.7 | 0.03 | 0.03 | 0.03 | 39 | 1008.9 |
| 20260505175000 | 26 | 201 | 3.2 | 8.0 | 0.03 | 0.03 | 0.03 | 39 | 1008.9 |
| 20260505174856 | 26 | 264 | 0.0 | 6.4 | 0.03 | 0.03 | 0.03 | 38 | 1009.0 |
| 20260505174756 | 26 | 264 | 0.0 | 6.4 | 0.03 | 0.03 | 0.03 | 38 | 1009.0 |
| 20260505174656 | 26 | 264 | 0.0 | 6.4 | 0.03 | 0.03 | 0.03 | 38 | 1009.0 |
| 20260505174559 | 26 | 264 | 0.0 | 6.4 | 0.03 | 0.03 | 0.03 | 39 | 1009.0 |
| 20260505174458 | 26 | 264 | 0.0 | 6.4 | 0.03 | 0.03 | 0.03 | 40 | 1009.0 |
| 20260505174358 | 26 | 264 | 0.0 | 6.4 | 0.03 | 0.03 | 0.03 | 40 | 1009.0 |
| 20260505174256 | 26 | 264 | 0.0 | 6.4 | 0.03 | 0.03 | 0.03 | 41 | 1009.0 |
| 20260505174158 | 26 | 264 | 1.6 | 6.4 | 0.03 | 0.03 | 0.03 | 40 | 1009.0 |
| 20260505174058 | 26 | 264 | 6.4 | 6.4 | 0.03 | 0.03 | 0.03 | 39 | 1009.0 |
| 20260505173958 | 26 | 21 | 3.2 | 6.4 | 0.03 | 0.03 | 0.03 | 38 | 1009.0 |
| 20260505173856 | 26 | 21 | 0.0 | 6.4 | 0.03 | 0.03 | 0.03 | 38 | 1009.0 |
| 20260505173758 | 26 | 184 | 0.0 | 4.8 | 0.03 | 0.03 | 0.03 | 37 | 1009.0 |
| 20260505173556 | 26 | 184 | 3.2 | 4.8 | 0.03 | 0.03 | 0.03 | 37 | 1009.0 |
| 20260505173456 | 26 | 184 | 1.6 | 4.8 | 0.03 | 0.03 | 0.03 | 37 | 1009.0 |
| 20260505173358 | 26 | 184 | 3.2 | 4.8 | 0.03 | 0.03 | 0.03 | 37 | 1008.9 |
| 20260505173257 | 26 | 184 | 0.0 | 4.8 | 0.03 | 0.03 | 0.03 | 37 | 1009.0 |
| 20260505173156 | 26 | 184 | 0.0 | 4.8 | 0.03 | 0.03 | 0.03 | 38 | 1009.0 |
| 20260505173058 | 26 | 184 | 1.6 | 4.8 | 0.03 | 0.03 | 0.03 | 38 | 1009.0 |
| 20260505173000 | 26 | 184 | 1.6 | 4.8 | 0.03 | 0.03 | 0.03 | 39 | 1009.0 |
| 20260505172858 | 26 | 184 | 1.6 | 4.8 | 0.03 | 0.03 | 0.03 | 39 | 1009.0 |
| 20260505172758 | 26 | 185 | 0.0 | 6.4 | 0.03 | 0.03 | 0.03 | 39 | 1009.1 |
| 20260505172558 | 26 | 185 | 0.0 | 6.4 | 0.03 | 0.03 | 0.03 | 39 | 1009.1 |
| 20260505172458 | 26 | 185 | 0.0 | 6.4 | 0.03 | 0.03 | 0.03 | 39 | 1009.1 |
| 20260505172357 | 26 | 187 | 1.6 | 6.4 | 0.03 | 0.03 | 0.03 | 39 | 1009.0 |
| 20260505172256 | 26 | 187 | 1.6 | 6.4 | 0.03 | 0.03 | 0.03 | 40 | 1009.0 |
| 20260505172158 | 26 | 188 | 0.0 | 6.4 | 0.03 | 0.03 | 0.03 | 40 | 1009.1 |
| 20260505172058 | 26 | 187 | 1.6 | 6.4 | 0.03 | 0.03 | 0.03 | 40 | 1009.1 |
| 20260505171958 | 26 | 186 | 3.2 | 6.4 | 0.03 | 0.03 | 0.03 | 40 | 1009.1 |
| 20260505171856 | 26 | 94 | 6.4 | 6.4 | 0.03 | 0.03 | 0.03 | 39 | 1009.2 |
| 20260505171658 | 26 | 92 | 0.0 | 6.4 | 0.03 | 0.03 | 0.03 | 38 | 1009.1 |
| 20260505171357 | 26 | 92 | 0.0 | 6.4 | 0.03 | 0.03 | 0.03 | 39 | 1009.1 |
| 20260505171159 | 26 | 92 | 1.6 | 6.4 | 0.03 | 0.03 | 0.03 | 39 | 1009.2 |
| 20260505171056 | 26 | 92 | 0.0 | 6.4 | 0.03 | 0.03 | 0.03 | 39 | 1009.2 |
| 20260505171000 | 26 | 92 | 0.0 | 6.4 | 0.03 | 0.03 | 0.03 | 38 | 1009.2 |
| 20260505170858 | 26 | 245 | 3.2 | 6.4 | 0.03 | 0.03 | 0.03 | 38 | 1009.2 |
| 20260505170759 | 26 | 257 | 0.0 | 6.4 | 0.03 | 0.03 | 0.03 | 39 | 1009.2 |
| 20260505170656 | 26 | 257 | 0.0 | 6.4 | 0.03 | 0.03 | 0.03 | 39 | 1009.2 |
| 20260505170557 | 26 | 257 | 1.6 | 6.4 | 0.03 | 0.03 | 0.03 | 39 | 1009.2 |
| 20260505170458 | 26 | 257 | 1.6 | 6.4 | 0.03 | 0.03 | 0.03 | 39 | 1009.2 |
| 20260505170358 | 26 | 257 | 0.0 | 9.7 | 0.03 | 0.03 | 0.03 | 39 | 1009.3 |
| 20260505170058 | 26 | 256 | 1.6 | 9.7 | 0.03 | 0.03 | 0.03 | 40 | 1009.3 |
| 20260505165956 | 26 | 256 | 4.8 | 9.7 | 0.03 | 0.03 | 0.03 | 41 | 1009.2 |
| 20260505165855 | 26 | 268 | 3.2 | 9.7 | 0.03 | 0.03 | 0.03 | 40 | 1009.3 |
| 20260505165758 | 26 | 268 | 0.0 | 9.7 | 0.03 | 0.03 | 0.03 | 40 | 1009.3 |
| 20260505165555 | 26 | 270 | 3.2 | 9.7 | 0.03 | 0.03 | 0.03 | 39 | 1009.3 |
| 20260505165357 | 26 | 174 | 0.0 | 6.4 | 0.03 | 0.03 | 0.03 | 39 | 1009.3 |
| 20260505165257 | 26 | 174 | 4.8 | 6.4 | 0.00 | 0.00 | 0.00 | 39 | 1009.3 |
| 20260505165156 | 26 | 174 | 1.6 | 6.4 | 0.00 | 0.00 | 0.00 | 38 | 1009.3 |
| 20260505165058 | 26 | 174 | 1.6 | 6.4 | 0.00 | 0.00 | 0.00 | 38 | 1009.3 |
| 20260505164857 | 26 | 181 | 0.0 | 6.4 | 0.00 | 0.00 | 0.00 | 38 | 1009.3 |
| 20260505164758 | 26 | 175 | 3.2 | 4.8 | 0.00 | 0.00 | 0.00 | 36 | 1009.3 |
| 20260505164655 | 26 | 175 | 0.0 | 4.8 | 0.00 | 0.00 | 0.00 | 36 | 1009.3 |
| 20260505164557 | 26 | 175 | 0.0 | 4.8 | 0.00 | 0.00 | 0.00 | 36 | 1009.3 |
| 20260505164357 | 26 | 175 | 0.0 | 4.8 | 0.00 | 0.00 | 0.00 | 36 | 1009.2 |
| 20260505164255 | 26 | 175 | 0.0 | 4.8 | 0.00 | 0.00 | 0.00 | 36 | 1009.2 |
| 20260505164157 | 26 | 175 | 0.0 | 4.8 | 0.00 | 0.00 | 0.00 | 36 | 1009.2 |
| 20260505163957 | 26 | 175 | 1.6 | 4.8 | 0.00 | 0.00 | 0.00 | 36 | 1009.2 |
| 20260505163855 | 26 | 181 | 3.2 | 6.4 | 0.00 | 0.00 | 0.00 | 35 | 1009.2 |
| 20260505163756 | 26 | 181 | 0.0 | 6.4 | 0.00 | 0.00 | 0.00 | 36 | 1009.2 |
| 20260505163658 | 26 | 181 | 1.6 | 6.4 | 0.00 | 0.00 | 0.00 | 35 | 1009.2 |
| 20260505163558 | 26 | 181 | 0.0 | 6.4 | 0.00 | 0.00 | 0.00 | 35 | 1009.2 |
| 20260505163455 | 26 | 181 | 1.6 | 6.4 | 0.00 | 0.00 | 0.00 | 36 | 1009.2 |
| 20260505163355 | 26 | 181 | 3.2 | 6.4 | 0.00 | 0.00 | 0.00 | 35 | 1009.2 |
| 20260505163257 | 26 | 181 | 0.0 | 6.4 | 0.00 | 0.00 | 0.00 | 35 | 1009.2 |
| 20260505163158 | 26 | 181 | 1.6 | 6.4 | 0.00 | 0.00 | 0.00 | 35 | 1009.2 |
| 20260505162957 | 26 | 176 | 0.0 | 8.0 | 0.00 | 0.00 | 0.00 | 34 | 1009.2 |
| 20260505162856 | 26 | 176 | 0.0 | 8.0 | 0.00 | 0.00 | 0.00 | 34 | 1009.2 |
| 20260505162758 | 26 | 176 | 0.0 | 8.0 | 0.00 | 0.00 | 0.00 | 35 | 1009.2 |
| 20260505162655 | 26 | 176 | 0.0 | 8.0 | 0.00 | 0.00 | 0.00 | 35 | 1009.2 |
| 20260505162556 | 26 | 176 | 0.0 | 8.0 | 0.00 | 0.00 | 0.00 | 35 | 1009.2 |
| 20260505162457 | 26 | 176 | 1.6 | 8.0 | 0.00 | 0.00 | 0.00 | 36 | 1009.1 |
| 20260505162357 | 26 | 176 | 3.2 | 8.0 | 0.00 | 0.00 | 0.00 | 36 | 1009.2 |
| 20260505162255 | 26 | 176 | 3.2 | 8.0 | 0.00 | 0.00 | 0.00 | 36 | 1009.1 |
| 20260505162156 | 26 | 172 | 4.8 | 8.0 | 0.00 | 0.00 | 0.00 | 34 | 1009.1 |
| 20260505161959 | 26 | 172 | 0.0 | 8.0 | 0.00 | 0.00 | 0.00 | 34 | 1009.1 |
| 20260505161857 | 26 | 171 | 1.6 | 8.0 | 0.00 | 0.00 | 0.00 | 34 | 1009.1 |
| 20260505161657 | 26 | 171 | 3.2 | 8.0 | 0.00 | 0.00 | 0.00 | 35 | 1009.1 |
| 20260505161557 | 26 | 245 | 3.2 | 9.7 | 0.00 | 0.00 | 0.00 | 34 | 1009.1 |
| 20260505161455 | 26 | 126 | 0.0 | 9.7 | 0.00 | 0.00 | 0.00 | 35 | 1009.2 |
| 20260505161356 | 26 | 126 | 1.6 | 9.7 | 0.00 | 0.00 | 0.00 | 35 | 1009.1 |
| 20260505161256 | 26 | 126 | 0.0 | 9.7 | 0.00 | 0.00 | 0.00 | 35 | 1009.1 |
| 20260505161157 | 26 | 126 | 1.6 | 9.7 | 0.00 | 0.00 | 0.00 | 35 | 1009.2 |
| 20260505161058 | 26 | 126 | 1.6 | 9.7 | 0.00 | 0.00 | 0.00 | 35 | 1009.1 |
| 20260505160957 | 26 | 125 | 3.2 | 9.7 | 0.00 | 0.00 | 0.00 | 35 | 1009.1 |
| 20260505160857 | 26 | 141 | 4.8 | 9.7 | 0.00 | 0.00 | 0.00 | 35 | 1009.2 |
| 20260505160755 | 26 | 183 | 1.6 | 6.4 | 0.00 | 0.00 | 0.00 | 35 | 1009.2 |
| 20260505160657 | 26 | 183 | 1.6 | 6.4 | 0.00 | 0.00 | 0.00 | 35 | 1009.1 |
| 20260505160555 | 26 | 182 | 1.6 | 6.4 | 0.00 | 0.00 | 0.00 | 34 | 1009.1 |
| 20260505160457 | 26 | 124 | 0.0 | 6.4 | 0.00 | 0.00 | 0.00 | 34 | 1009.2 |
| 20260505153356 | 25 | 206 | 1.6 | 6.4 | 0.00 | 0.00 | 0.00 | 33 | 1009.0 |
| 20260505153156 | 25 | 196 | 1.6 | 6.4 | 0.00 | 0.00 | 0.00 | 33 | 1008.9 |
| 20260505153058 | 25 | 196 | 0.0 | 6.4 | 0.00 | 0.00 | 0.00 | 33 | 1008.9 |
| 20260505153000 | 25 | 196 | 0.0 | 6.4 | 0.00 | 0.00 | 0.00 | 33 | 1008.9 |
| 20260505152856 | 25 | 196 | 3.2 | 9.7 | 0.00 | 0.00 | 0.00 | 32 | 1009.0 |
| 20260505152758 | 25 | 196 | 4.8 | 11.3 | 0.00 | 0.00 | 0.00 | 31 | 1008.9 |
| 20260505152657 | 25 | 187 | 1.6 | 11.3 | 0.00 | 0.00 | 0.00 | 32 | 1008.9 |
| 20260505152558 | 25 | 187 | 0.0 | 11.3 | 0.00 | 0.00 | 0.00 | 32 | 1008.9 |
| 20260505152357 | 25 | 229 | 1.6 | 11.3 | 0.00 | 0.00 | 0.00 | 32 | 1008.9 |
| 20260505152258 | 25 | 229 | 3.2 | 11.3 | 0.00 | 0.00 | 0.00 | 33 | 1008.9 |
| 20260505152159 | 25 | 232 | 0.0 | 11.3 | 0.00 | 0.00 | 0.00 | 33 | 1008.9 |
| 20260505152055 | 25 | 232 | 1.6 | 11.3 | 0.00 | 0.00 | 0.00 | 33 | 1008.9 |
| 20260505151958 | 25 | 177 | 3.2 | 11.3 | 0.00 | 0.00 | 0.00 | 32 | 1008.9 |
| 20260505151858 | 25 | 175 | 1.6 | 11.3 | 0.00 | 0.00 | 0.00 | 32 | 1008.9 |
| 20260505151759 | 25 | 130 | 6.4 | 9.7 | 0.00 | 0.00 | 0.00 | 31 | 1008.9 |
| 20260505151557 | 25 | 175 | 1.6 | 9.7 | 0.00 | 0.00 | 0.00 | 31 | 1008.9 |
| 20260505151458 | 25 | 174 | 3.2 | 9.7 | 0.00 | 0.00 | 0.00 | 31 | 1008.9 |
| 20260505151358 | 25 | 302 | 0.0 | 9.7 | 0.00 | 0.00 | 0.00 | 31 | 1008.9 |
| 20260505151159 | 25 | 250 | 1.6 | 9.7 | 0.00 | 0.00 | 0.00 | 31 | 1008.9 |
| 20260505151056 | 25 | 210 | 4.8 | 6.4 | 0.00 | 0.00 | 0.00 | 29 | 1008.9 |
| 20260505151000 | 25 | 288 | 3.2 | 6.4 | 0.00 | 0.00 | 0.00 | 28 | 1008.9 |
| 20260505150856 | 25 | 286 | 1.6 | 6.4 | 0.00 | 0.00 | 0.00 | 28 | 1008.9 |
| 20260505150757 | 25 | 287 | 3.2 | 6.4 | 0.00 | 0.00 | 0.00 | 28 | 1008.9 |
| 20260505150558 | 25 | 286 | 0.0 | 4.8 | 0.00 | 0.00 | 0.00 | 27 | 1008.9 |
| 20260505150457 | 25 | 287 | 0.0 | 11.3 | 0.00 | 0.00 | 0.00 | 27 | 1008.9 |
| 20260505150356 | 25 | 287 | 0.0 | 11.3 | 0.00 | 0.00 | 0.00 | 27 | 1008.9 |
| 20260505150258 | 25 | 287 | 3.2 | 11.3 | 0.00 | 0.00 | 0.00 | 27 | 1008.8 |
| 20260505150158 | 25 | 288 | 4.8 | 11.3 | 0.00 | 0.00 | 0.00 | 26 | 1008.8 |
| 20260505140457 | 23 | 149 | 0.0 | 8.0 | 0.00 | 0.00 | 0.00 | 5 | 1009.0 |
| 20260505140257 | 23 | 149 | 0.0 | 8.0 | 0.00 | 0.00 | 0.00 | 5 | 1009.0 |
| 20260505140158 | 23 | 149 | 1.6 | 8.0 | 0.00 | 0.00 | 0.00 | 5 | 1009.0 |
| 20260505130258 | 22 | 182 | 0.0 | 4.8 | 0.00 | 0.00 | 0.00 | 100 | 1008.9 |
| 20260505130156 | 22 | 182 | 1.6 | 4.8 | 0.00 | 0.00 | 0.00 | 100 | 1008.9 |
| 20260505124957 | 22 | 149 | 1.6 | 6.4 | 0.00 | 0.00 | 0.00 | 100 | 1008.7 |
| 20260505124856 | 22 | 150 | 1.6 | 6.4 | 0.00 | 0.00 | 0.00 | 100 | 1008.6 |
| 20260505124758 | 22 | 150 | 1.6 | 6.4 | 0.00 | 0.00 | 0.00 | 100 | 1008.6 |
| 20260505124656 | 22 | 150 | 0.0 | 6.4 | 0.00 | 0.00 | 0.00 | 100 | 1008.6 |
| 20260505124458 | 22 | 150 | 3.2 | 6.4 | 0.00 | 0.00 | 0.00 | 100 | 1008.6 |
| 20260505124356 | 22 | 173 | 0.0 | 6.4 | 0.00 | 0.00 | 0.00 | 100 | 1008.5 |
| 20260505124257 | 22 | 175 | 0.0 | 4.8 | 0.00 | 0.00 | 0.00 | 100 | 1008.6 |
| 20260505124158 | 22 | 175 | 0.0 | 4.8 | 0.00 | 0.00 | 0.00 | 100 | 1008.5 |
| 20260505124058 | 21 | 175 | 0.0 | 4.8 | 0.00 | 0.00 | 0.00 | 100 | 1008.6 |
| 20260505123857 | 21 | 175 | 1.6 | 4.8 | 0.00 | 0.00 | 0.00 | 100 | 1008.6 |
| 20260505123757 | 21 | 175 | 0.0 | 4.8 | 0.00 | 0.00 | 0.00 | 100 | 1008.6 |
| 20260505123656 | 21 | 174 | 0.0 | 4.8 | 0.00 | 0.00 | 0.00 | 100 | 1008.7 |
| 20260505123557 | 21 | 174 | 0.0 | 4.8 | 0.00 | 0.00 | 0.00 | 100 | 1008.7 |
| 20260505123456 | 21 | 174 | 0.0 | 4.8 | 0.00 | 0.00 | 0.00 | 100 | 1008.7 |
| 20260505123256 | 21 | 174 | 1.6 | 4.8 | 0.00 | 0.00 | 0.00 | 100 | 1008.6 |
| 20260505123156 | 21 | 174 | 0.0 | 4.8 | 0.00 | 0.00 | 0.00 | 100 | 1008.6 |
| 20260505123055 | 21 | 174 | 0.0 | 4.8 | 0.00 | 0.00 | 0.00 | 100 | 1008.5 |
| 20260505122857 | 21 | 174 | 0.0 | 3.2 | 0.00 | 0.00 | 0.00 | 100 | 1008.4 |
| 20260505122756 | 21 | 174 | 0.0 | 3.2 | 0.00 | 0.00 | 0.00 | 100 | 1008.4 |
| 20260505122656 | 21 | 174 | 0.0 | 3.2 | 0.00 | 0.00 | 0.00 | 100 | 1008.4 |
| 20260505122558 | 21 | 174 | 0.0 | 6.4 | 0.00 | 0.00 | 0.00 | 100 | 1008.3 |
| 20260505122357 | 21 | 174 | 0.0 | 6.4 | 0.00 | 0.00 | 0.00 | 100 | 1008.3 |
| 20260505122258 | 21 | 174 | 0.0 | 6.4 | 0.00 | 0.00 | 0.00 | 100 | 1008.3 |
| 20260505122158 | 21 | 174 | 0.0 | 6.4 | 0.00 | 0.00 | 0.00 | 100 | 1008.3 |
| 20260505122058 | 21 | 174 | 0.0 | 6.4 | 0.00 | 0.00 | 0.00 | 100 | 1008.3 |
| 20260505122000 | 21 | 174 | 1.6 | 6.4 | 0.00 | 0.00 | 0.00 | 100 | 1008.2 |
| 20260505121855 | 21 | 174 | 0.0 | 6.4 | 0.00 | 0.00 | 0.00 | 100 | 1008.2 |
| 20260505121758 | 21 | 174 | 0.0 | 6.4 | 0.00 | 0.00 | 0.00 | 100 | 1008.2 |
| 20260505121657 | 21 | 174 | 4.8 | 6.4 | 0.00 | 0.00 | 0.00 | 100 | 1008.2 |
| 20260505121556 | 21 | 174 | 1.6 | 6.4 | 0.00 | 0.00 | 0.00 | 100 | 1008.1 |
| 20260505121356 | 21 | 174 | 4.8 | 4.8 | 0.00 | 0.00 | 0.00 | 100 | 1008.1 |
| 20260505121258 | 21 | 175 | 0.0 | 3.2 | 0.00 | 0.00 | 0.00 | 100 | 1008.1 |
| 20260505121058 | 21 | 175 | 0.0 | 3.2 | 0.00 | 0.00 | 0.00 | 100 | 1008.0 |
| 20260505120959 | 21 | 175 | 1.6 | 4.8 | 0.00 | 0.00 | 0.00 | 100 | 1008.0 |
| 20260505120858 | 21 | 175 | 0.0 | 4.8 | 0.00 | 0.00 | 0.00 | 100 | 1008.0 |
| 20260505120756 | 21 | 175 | 0.0 | 4.8 | 0.00 | 0.00 | 0.00 | 100 | 1008.0 |
| 20260505120657 | 21 | 175 | 3.2 | 4.8 | 0.00 | 0.00 | 0.00 | 100 | 1008.0 |
| 20260505120458 | 21 | 175 | 0.0 | 4.8 | 0.00 | 0.00 | 0.00 | 100 | 1007.9 |
| 20260505120356 | 21 | 175 | 0.0 | 4.8 | 0.00 | 0.00 | 0.00 | 100 | 1007.9 |
| 20260505120255 | 21 | 175 | 0.0 | 4.8 | 0.00 | 0.00 | 0.00 | 100 | 1007.9 |
| 20260505120156 | 21 | 175 | 3.2 | 4.8 | 0.00 | 0.00 | 0.00 | 100 | 1008.0 |
| 20260505120058 | 21 | 177 | 1.6 | 3.2 | 0.00 | 0.00 | 0.00 | 100 | 1008.0 |
| 20260505115957 | 21 | 177 | 0.0 | 3.2 | 0.00 | 0.00 | 0.00 | 100 | 1008.1 |
| 20260505115856 | 21 | 177 | 1.6 | 3.2 | 0.00 | 0.00 | 0.00 | 100 | 1008.2 |
| 20260505115758 | 21 | 177 | 0.0 | 3.2 | 0.00 | 0.00 | 0.00 | 100 | 1008.2 |
| 20260505115556 | 21 | 177 | 0.0 | 3.2 | 0.00 | 0.00 | 0.00 | 100 | 1008.4 |
| 20260505115456 | 21 | 177 | 0.0 | 3.2 | 0.00 | 0.00 | 0.00 | 100 | 1008.4 |
| 20260505115358 | 21 | 177 | 0.0 | 3.2 | 0.00 | 0.00 | 0.00 | 100 | 1008.5 |
| 20260505115258 | 21 | 177 | 1.6 | 1.6 | 0.00 | 0.00 | 0.00 | 100 | 1008.5 |
| 20260505115056 | 21 | 177 | 0.0 | 1.6 | 0.00 | 0.00 | 0.00 | 100 | 1008.5 |
| 20260505114856 | 21 | 177 | 0.0 | 1.6 | 0.00 | 0.00 | 0.00 | 100 | 1008.5 |
| 20260505114758 | 21 | 177 | 0.0 | 1.6 | 0.00 | 0.00 | 0.00 | 100 | 1008.6 |
| 20260505114656 | 21 | 177 | 1.6 | 1.6 | 0.00 | 0.00 | 0.00 | 100 | 1008.6 |
| 20260505114557 | 21 | 177 | 0.0 | 1.6 | 0.00 | 0.00 | 0.00 | 100 | 1008.6 |
| 20260505114456 | 21 | 177 | 0.0 | 1.6 | 0.00 | 0.00 | 0.00 | 100 | 1008.6 |
| 20260505114358 | 21 | 177 | 0.0 | 0.0 | 0.00 | 0.00 | 0.00 | 100 | 1008.5 |
| 20260505114256 | 21 | 177 | 0.0 | 1.6 | 0.00 | 0.00 | 0.00 | 100 | 1008.6 |
| 20260505114057 | 21 | 177 | 0.0 | 1.6 | 0.00 | 0.00 | 0.00 | 100 | 1008.4 |
| 20260505113959 | 21 | 177 | 0.0 | 1.6 | 0.00 | 0.00 | 0.00 | 100 | 1008.4 |
| 20260505113858 | 21 | 177 | 0.0 | 1.6 | 0.00 | 0.00 | 0.00 | 100 | 1008.3 |
| 20260505113756 | 21 | 177 | 0.0 | 1.6 | 0.00 | 0.00 | 0.00 | 100 | 1008.3 |
| 20260505113658 | 21 | 177 | 0.0 | 1.6 | 0.00 | 0.00 | 0.00 | 100 | 1008.3 |
| 20260505113458 | 21 | 177 | 0.0 | 1.6 | 0.00 | 0.00 | 0.00 | 100 | 1008.3 |
| 20260505113359 | 21 | 177 | 0.0 | 1.6 | 0.00 | 0.00 | 0.00 | 100 | 1008.2 |
| 20260505113058 | 21 | 177 | 0.0 | 1.6 | 0.00 | 0.00 | 0.00 | 100 | 1008.2 |
| 20260505112757 | 21 | 177 | 0.0 | 1.6 | 0.00 | 0.00 | 0.00 | 100 | 1008.2 |
| 20260505112656 | 21 | 177 | 0.0 | 1.6 | 0.00 | 0.00 | 0.00 | 100 | 1008.2 |
| 20260505112556 | 21 | 177 | 1.6 | 1.6 | 0.00 | 0.00 | 0.00 | 100 | 1008.2 |
| 20260505112358 | 21 | 177 | 0.0 | 3.2 | 0.00 | 0.00 | 0.00 | 100 | 1008.1 |
| 20260505112256 | 21 | 177 | 0.0 | 3.2 | 0.00 | 0.00 | 0.00 | 100 | 1008.1 |
| 20260505112057 | 21 | 177 | 0.0 | 3.2 | 0.00 | 0.00 | 0.00 | 100 | 1008.1 |
| 20260505111959 | 21 | 177 | 0.0 | 3.2 | 0.00 | 0.00 | 0.00 | 100 | 1008.1 |
| 20260505111858 | 21 | 177 | 0.0 | 3.2 | 0.00 | 0.00 | 0.00 | 100 | 1008.1 |
| 20260505111758 | 21 | 177 | 0.0 | 3.2 | 0.00 | 0.00 | 0.00 | 100 | 1008.0 |
| 20260505111658 | 21 | 177 | 0.0 | 3.2 | 0.00 | 0.00 | 0.00 | 100 | 1008.0 |
| 20260505111558 | 21 | 177 | 1.6 | 3.2 | 0.00 | 0.00 | 0.00 | 100 | 1008.0 |
| 20260505111458 | 21 | 177 | 1.6 | 3.2 | 0.00 | 0.00 | 0.00 | 100 | 1008.0 |
| 20260505111358 | 21 | 177 | 0.0 | 3.2 | 0.00 | 0.00 | 0.00 | 100 | 1008.0 |
| 20260505111258 | 21 | 177 | 0.0 | 3.2 | 0.00 | 0.00 | 0.00 | 100 | 1008.0 |
| 20260505111158 | 21 | 177 | 0.0 | 3.2 | 0.00 | 0.00 | 0.00 | 100 | 1008.1 |
| 20260505111058 | 21 | 177 | 0.0 | 3.2 | 0.00 | 0.00 | 0.00 | 100 | 1008.2 |
| 20260505110957 | 21 | 177 | 0.0 | 3.2 | 0.00 | 0.00 | 0.00 | 100 | 1008.2 |
| 20260505110856 | 21 | 177 | 0.0 | 4.8 | 0.00 | 0.00 | 0.00 | 100 | 1008.2 |
| 20260505110758 | 21 | 177 | 0.0 | 4.8 | 0.00 | 0.00 | 0.00 | 100 | 1008.2 |
| 20260505110657 | 21 | 177 | 0.0 | 4.8 | 0.00 | 0.00 | 0.00 | 100 | 1008.2 |
| 20260505110556 | 21 | 177 | 0.0 | 4.8 | 0.00 | 0.00 | 0.00 | 100 | 1008.2 |
| 20260505110456 | 21 | 177 | 0.0 | 4.8 | 0.00 | 0.00 | 0.00 | 100 | 1008.2 |
| 20260505110356 | 21 | 177 | 0.0 | 4.8 | 0.00 | 0.00 | 0.00 | 100 | 1008.3 |
| 20260505110255 | 21 | 177 | 0.0 | 4.8 | 0.00 | 0.00 | 0.00 | 1 | 1008.4 |
| 20260505110156 | 21 | 177 | 1.6 | 4.8 | 0.00 | 0.00 | 0.00 | 1 | 1008.3 |
| 20260505102158 | 21 | 177 | 0.0 | 3.2 | 0.00 | 0.00 | 0.00 | 1 | 1008.1 |
| 20260505102056 | 21 | 177 | 0.0 | 3.2 | 0.00 | 0.00 | 0.00 | 1 | 1008.1 |
| 20260505101858 | 21 | 177 | 0.0 | 3.2 | 0.00 | 0.00 | 0.00 | 1 | 1008.1 |
| 20260505101757 | 21 | 177 | 0.0 | 3.2 | 0.00 | 0.00 | 0.00 | 1 | 1008.1 |
| 20260505101657 | 21 | 177 | 1.6 | 3.2 | 0.00 | 0.00 | 0.00 | 1 | 1008.1 |
| 20260505101556 | 21 | 177 | 0.0 | 1.6 | 0.00 | 0.00 | 0.00 | 1 | 1008.2 |
| 20260505101358 | 21 | 177 | 0.0 | 1.6 | 0.00 | 0.00 | 0.00 | 2 | 1008.3 |
| 20260505101255 | 21 | 177 | 0.0 | 1.6 | 0.00 | 0.00 | 0.00 | 2 | 1008.4 |
| 20260505101156 | 21 | 177 | 0.0 | 1.6 | 0.00 | 0.00 | 0.00 | 2 | 1008.4 |
| 20260505100857 | 21 | 177 | 0.0 | 3.2 | 0.00 | 0.00 | 0.00 | 1 | 1008.4 |
| 20260505100758 | 21 | 177 | 0.0 | 3.2 | 0.00 | 0.00 | 0.00 | 1 | 1008.4 |
| 20260505100557 | 21 | 177 | 0.0 | 3.2 | 0.00 | 0.00 | 0.00 | 1 | 1008.4 |
| 20260505100458 | 21 | 177 | 0.0 | 3.2 | 0.00 | 0.00 | 0.00 | 1 | 1008.4 |
| 20260505100358 | 21 | 177 | 0.0 | 3.2 | 0.00 | 0.00 | 0.00 | 1 | 1008.4 |
| 20260505100158 | 21 | 177 | 3.2 | 3.2 | 0.00 | 0.00 | 0.00 | 1 | 1008.4 |
| 20260505100056 | 21 | 177 | 0.0 | 1.6 | 0.00 | 0.00 | 0.00 | 2 | 1008.3 |
| 20260505095958 | 21 | 177 | 0.0 | 1.6 | 0.00 | 0.00 | 0.00 | 2 | 1008.4 |
| 20260505095855 | 21 | 177 | 0.0 | 1.6 | 0.00 | 0.00 | 0.00 | 2 | 1008.4 |
| 20260505095657 | 21 | 177 | 0.0 | 1.6 | 0.00 | 0.00 | 0.00 | 2 | 1008.3 |
| 20260505095558 | 21 | 177 | 0.0 | 3.2 | 0.00 | 0.00 | 0.00 | 2 | 1008.3 |
| 20260505095456 | 21 | 177 | 0.0 | 3.2 | 0.00 | 0.00 | 0.00 | 2 | 1008.2 |
| 20260505095357 | 21 | 177 | 0.0 | 3.2 | 0.00 | 0.00 | 0.00 | 2 | 1008.2 |
| 20260505095255 | 21 | 177 | 0.0 | 3.2 | 0.00 | 0.00 | 0.00 | 2 | 1008.2 |
| 20260505095057 | 21 | 177 | 0.0 | 3.2 | 0.00 | 0.00 | 0.00 | 2 | 1008.1 |
| 20260505094959 | 21 | 177 | 0.0 | 3.2 | 0.00 | 0.00 | 0.00 | 2 | 1008.0 |
| 20260505094855 | 21 | 177 | 0.0 | 3.2 | 0.00 | 0.00 | 0.00 | 2 | 1008.1 |
| 20260505094756 | 21 | 177 | 0.0 | 3.2 | 0.00 | 0.00 | 0.00 | 3 | 1008.0 |
| 20260505094658 | 21 | 177 | 0.0 | 3.2 | 0.00 | 0.00 | 0.00 | 2 | 1008.1 |
| 20260505094558 | 21 | 177 | 0.0 | 3.2 | 0.00 | 0.00 | 0.00 | 2 | 1008.1 |
| 20260505094457 | 21 | 177 | 1.6 | 3.2 | 0.00 | 0.00 | 0.00 | 3 | 1008.1 |
| 20260505094358 | 21 | 177 | 0.0 | 3.2 | 0.00 | 0.00 | 0.00 | 3 | 1008.2 |
| 20260505094258 | 21 | 177 | 1.6 | 1.6 | 0.00 | 0.00 | 0.00 | 3 | 1008.2 |
| 20260505094158 | 21 | 177 | 0.0 | 3.2 | 0.00 | 0.00 | 0.00 | 3 | 1008.3 |
| 20260505094057 | 21 | 177 | 0.0 | 3.2 | 0.00 | 0.00 | 0.00 | 3 | 1008.2 |
| 20260505093959 | 21 | 177 | 0.0 | 3.2 | 0.00 | 0.00 | 0.00 | 4 | 1008.2 |
| 20260505093858 | 21 | 177 | 0.0 | 3.2 | 0.00 | 0.00 | 0.00 | 4 | 1008.2 |
| 20260505093758 | 21 | 177 | 0.0 | 3.2 | 0.00 | 0.00 | 0.00 | 3 | 1008.2 |
| 20260505093657 | 21 | 177 | 0.0 | 3.2 | 0.00 | 0.00 | 0.00 | 4 | 1008.2 |
| 20260505093556 | 21 | 177 | 0.0 | 3.2 | 0.00 | 0.00 | 0.00 | 4 | 1008.1 |
| 20260505093457 | 21 | 177 | 0.0 | 3.2 | 0.00 | 0.00 | 0.00 | 4 | 1008.3 |
| 20260505093358 | 21 | 177 | 0.0 | 3.2 | 0.00 | 0.00 | 0.00 | 4 | 1008.2 |
| 20260505093258 | 21 | 177 | 1.6 | 3.2 | 0.00 | 0.00 | 0.00 | 4 | 1008.3 |
| 20260505093156 | 21 | 177 | 0.0 | 1.6 | 0.00 | 0.00 | 0.00 | 4 | 1008.2 |
| 20260505092958 | 21 | 177 | 0.0 | 1.6 | 0.00 | 0.00 | 0.00 | 4 | 1008.3 |
| 20260505092855 | 21 | 177 | 0.0 | 1.6 | 0.00 | 0.00 | 0.00 | 4 | 1008.3 |
| 20260505092758 | 21 | 177 | 0.0 | 1.6 | 0.00 | 0.00 | 0.00 | 4 | 1008.4 |
| 20260505092656 | 21 | 177 | 0.0 | 1.6 | 0.00 | 0.00 | 0.00 | 5 | 1008.4 |
| 20260505092558 | 21 | 177 | 0.0 | 1.6 | 0.00 | 0.00 | 0.00 | 6 | 1008.4 |
| 20260505092456 | 21 | 177 | 0.0 | 1.6 | 0.00 | 0.00 | 0.00 | 6 | 1008.4 |
| 20260505092357 | 21 | 177 | 0.0 | 1.6 | 0.00 | 0.00 | 0.00 | 6 | 1008.5 |
| 20260505092257 | 21 | 177 | 0.0 | 1.6 | 0.00 | 0.00 | 0.00 | 6 | 1008.5 |
| 20260505092158 | 21 | 177 | 0.0 | 1.6 | 0.00 | 0.00 | 0.00 | 6 | 1008.5 |
| 20260505092058 | 21 | 177 | 0.0 | 1.6 | 0.00 | 0.00 | 0.00 | 7 | 1008.5 |
| 20260505091958 | 21 | 177 | 0.0 | 1.6 | 0.00 | 0.00 | 0.00 | 7 | 1008.6 |
| 20260505091858 | 21 | 177 | 0.0 | 1.6 | 0.00 | 0.00 | 0.00 | 7 | 1008.6 |
| 20260505091657 | 21 | 177 | 0.0 | 1.6 | 0.00 | 0.00 | 0.00 | 8 | 1008.6 |
| 20260505091356 | 21 | 177 | 0.0 | 1.6 | 0.00 | 0.00 | 0.00 | 8 | 1008.6 |
| 20260505091256 | 21 | 177 | 0.0 | 1.6 | 0.00 | 0.00 | 0.00 | 7 | 1008.6 |
| 20260505091155 | 21 | 177 | 0.0 | 1.6 | 0.00 | 0.00 | 0.00 | 7 | 1008.6 |
| 20260505090957 | 21 | 177 | 0.0 | 1.6 | 0.00 | 0.00 | 0.00 | 7 | 1008.6 |
| 20260505090857 | 21 | 177 | 0.0 | 1.6 | 0.00 | 0.00 | 0.00 | 7 | 1008.5 |
| 20260505090756 | 21 | 177 | 0.0 | 1.6 | 0.00 | 0.00 | 0.00 | 7 | 1008.5 |
| 20260505090558 | 21 | 177 | 0.0 | 3.2 | 0.00 | 0.00 | 0.00 | 7 | 1008.5 |
| 20260505090358 | 21 | 177 | 0.0 | 3.2 | 0.00 | 0.00 | 0.00 | 7 | 1008.5 |
| 20260505090257 | 21 | 177 | 0.0 | 3.2 | 0.00 | 0.00 | 0.00 | 8 | 1008.6 |
| 20260505090158 | 21 | 177 | 0.0 | 3.2 | 0.00 | 0.00 | 0.00 | 8 | 1008.6 |
| 20260505090058 | 21 | 177 | 0.0 | 3.2 | 0.00 | 0.00 | 0.00 | 8 | 1008.5 |
| 20260505085857 | 21 | 177 | 0.0 | 3.2 | 0.00 | 0.00 | 0.00 | 8 | 1008.5 |
| 20260505085758 | 21 | 177 | 0.0 | 3.2 | 0.00 | 0.00 | 0.00 | 8 | 1008.5 |
| 20260505085657 | 21 | 177 | 3.2 | 3.2 | 0.00 | 0.00 | 0.00 | 8 | 1008.5 |
| 20260505085556 | 21 | 177 | 0.0 | 1.6 | 0.00 | 0.00 | 0.00 | 8 | 1008.5 |
| 20260505085458 | 21 | 177 | 0.0 | 1.6 | 0.00 | 0.00 | 0.00 | 8 | 1008.6 |
| 20260505085257 | 21 | 177 | 0.0 | 1.6 | 0.00 | 0.00 | 0.00 | 9 | 1008.6 |
| 20260505085157 | 21 | 177 | 0.0 | 1.6 | 0.00 | 0.00 | 0.00 | 9 | 1008.6 |
| 20260505085058 | 21 | 177 | 0.0 | 1.6 | 0.00 | 0.00 | 0.00 | 9 | 1008.6 |
| 20260505084959 | 21 | 177 | 0.0 | 1.6 | 0.00 | 0.00 | 0.00 | 10 | 1008.6 |
| 20260505084756 | 21 | 177 | 0.0 | 1.6 | 0.00 | 0.00 | 0.00 | 10 | 1008.5 |
| 20260505084556 | 21 | 177 | 0.0 | 1.6 | 0.00 | 0.00 | 0.00 | 10 | 1008.6 |
| 20260505084455 | 21 | 177 | 0.0 | 1.6 | 0.00 | 0.00 | 0.00 | 9 | 1008.6 |
| 20260505084357 | 21 | 177 | 0.0 | 1.6 | 0.00 | 0.00 | 0.00 | 9 | 1008.6 |
| 20260505084257 | 21 | 177 | 0.0 | 3.2 | 0.00 | 0.00 | 0.00 | 9 | 1008.5 |
| 20260505084158 | 21 | 177 | 0.0 | 3.2 | 0.00 | 0.00 | 0.00 | 9 | 1008.5 |
| 20260505084058 | 21 | 177 | 0.0 | 3.2 | 0.00 | 0.00 | 0.00 | 9 | 1008.5 |
| 20260505083959 | 21 | 177 | 0.0 | 3.2 | 0.00 | 0.00 | 0.00 | 9 | 1008.6 |
| 20260505083856 | 21 | 177 | 0.0 | 3.2 | 0.00 | 0.00 | 0.00 | 9 | 1008.6 |
| 20260505083758 | 21 | 177 | 0.0 | 3.2 | 0.00 | 0.00 | 0.00 | 9 | 1008.6 |
| 20260505083657 | 21 | 177 | 0.0 | 3.2 | 0.00 | 0.00 | 0.00 | 9 | 1008.6 |
| 20260505083557 | 21 | 177 | 0.0 | 3.2 | 0.00 | 0.00 | 0.00 | 9 | 1008.6 |
| 20260505083457 | 21 | 177 | 0.0 | 3.2 | 0.00 | 0.00 | 0.00 | 10 | 1008.6 |
| 20260505083357 | 21 | 177 | 0.0 | 3.2 | 0.00 | 0.00 | 0.00 | 10 | 1008.6 |
| 20260505083156 | 21 | 177 | 0.0 | 3.2 | 0.00 | 0.00 | 0.00 | 10 | 1008.5 |
| 20260505083057 | 21 | 177 | 0.0 | 3.2 | 0.00 | 0.00 | 0.00 | 10 | 1008.5 |
| 20260505083000 | 21 | 177 | 0.0 | 3.2 | 0.00 | 0.00 | 0.00 | 10 | 1008.5 |
| 20260505082858 | 21 | 177 | 0.0 | 3.2 | 0.00 | 0.00 | 0.00 | 10 | 1008.5 |
| 20260505082756 | 21 | 177 | 0.0 | 3.2 | 0.00 | 0.00 | 0.00 | 11 | 1008.5 |
| 20260505082556 | 21 | 177 | 0.0 | 4.8 | 0.00 | 0.00 | 0.00 | 11 | 1008.6 |
| 20260505082457 | 21 | 177 | 0.0 | 4.8 | 0.00 | 0.00 | 0.00 | 12 | 1008.5 |
| 20260505082358 | 21 | 177 | 0.0 | 4.8 | 0.00 | 0.00 | 0.00 | 12 | 1008.5 |
| 20260505082156 | 21 | 177 | 0.0 | 4.8 | 0.00 | 0.00 | 0.00 | 12 | 1008.6 |
| 20260505082055 | 21 | 177 | 0.0 | 4.8 | 0.00 | 0.00 | 0.00 | 12 | 1008.6 |
| 20260505081958 | 21 | 177 | 0.0 | 4.8 | 0.00 | 0.00 | 0.00 | 12 | 1008.6 |
| 20260505081857 | 21 | 177 | 0.0 | 4.8 | 0.00 | 0.00 | 0.00 | 13 | 1008.6 |
| 20260505081758 | 21 | 177 | 3.2 | 4.8 | 0.00 | 0.00 | 0.00 | 13 | 1008.6 |
| 20260505081458 | 21 | 177 | 0.0 | 3.2 | 0.00 | 0.00 | 0.00 | 14 | 1008.8 |
| 20260505081255 | 21 | 177 | 0.0 | 3.2 | 0.00 | 0.00 | 0.00 | 14 | 1008.8 |
| 20260505081158 | 21 | 177 | 0.0 | 4.8 | 0.00 | 0.00 | 0.00 | 15 | 1008.8 |
| 20260505081056 | 21 | 177 | 0.0 | 4.8 | 0.00 | 0.00 | 0.00 | 15 | 1008.8 |
| 20260505080858 | 21 | 177 | 0.0 | 4.8 | 0.00 | 0.00 | 0.00 | 15 | 1008.8 |
| 20260505080758 | 21 | 177 | 0.0 | 4.8 | 0.00 | 0.00 | 0.00 | 15 | 1008.8 |
| 20260505080658 | 21 | 177 | 0.0 | 4.8 | 0.00 | 0.00 | 0.00 | 15 | 1008.8 |
| 20260505080559 | 21 | 177 | 0.0 | 4.8 | 0.00 | 0.00 | 0.00 | 15 | 1008.8 |
| 20260505080456 | 21 | 177 | 0.0 | 4.8 | 0.00 | 0.00 | 0.00 | 15 | 1008.8 |
| 20260505080358 | 21 | 177 | 0.0 | 4.8 | 0.00 | 0.00 | 0.00 | 15 | 1008.9 |
| 20260505080257 | 21 | 171 | 0.0 | 3.2 | 0.00 | 0.00 | 0.00 | 15 | 1008.9 |
| 20260505080057 | 21 | 171 | 0.0 | 4.8 | 0.00 | 0.00 | 0.00 | 16 | 1008.8 |
| 20260505080002 | 21 | 171 | 1.6 | 4.8 | 0.00 | 0.00 | 0.00 | 16 | 1008.8 |
| 20260505075756 | 21 | 171 | 0.0 | 4.8 | 0.00 | 0.00 | 0.00 | 16 | 1008.9 |
| 20260505075656 | 21 | 171 | 1.6 | 4.8 | 0.00 | 0.00 | 0.00 | 16 | 1008.9 |
| 20260505075558 | 21 | 171 | 0.0 | 4.8 | 0.00 | 0.00 | 0.00 | 16 | 1008.9 |
| 20260505075458 | 21 | 171 | 0.0 | 4.8 | 0.00 | 0.00 | 0.00 | 16 | 1008.9 |
| 20260505075358 | 21 | 171 | 4.8 | 4.8 | 0.00 | 0.00 | 0.00 | 16 | 1008.9 |
| 20260505075256 | 21 | 170 | 1.6 | 3.2 | 0.00 | 0.00 | 0.00 | 16 | 1008.9 |
| 20260505075158 | 21 | 170 | 1.6 | 3.2 | 0.00 | 0.00 | 0.00 | 16 | 1008.9 |
| 20260505075056 | 21 | 170 | 0.0 | 4.8 | 0.00 | 0.00 | 0.00 | 16 | 1008.9 |
| 20260505074957 | 21 | 170 | 0.0 | 4.8 | 0.00 | 0.00 | 0.00 | 16 | 1008.9 |
| 20260505074857 | 21 | 170 | 0.0 | 4.8 | 0.00 | 0.00 | 0.00 | 16 | 1009.0 |
| 20260505074756 | 21 | 170 | 0.0 | 4.8 | 0.00 | 0.00 | 0.00 | 17 | 1008.9 |
| 20260505074557 | 21 | 170 | 0.0 | 4.8 | 0.00 | 0.00 | 0.00 | 17 | 1009.0 |
| 20260505074456 | 21 | 170 | 0.0 | 4.8 | 0.00 | 0.00 | 0.00 | 16 | 1009.0 |
| 20260505074358 | 21 | 170 | 0.0 | 4.8 | 0.00 | 0.00 | 0.00 | 16 | 1009.0 |
| 20260505074259 | 21 | 170 | 0.0 | 4.8 | 0.00 | 0.00 | 0.00 | 16 | 1009.0 |
| 20260505074158 | 21 | 170 | 3.2 | 4.8 | 0.00 | 0.00 | 0.00 | 17 | 1009.0 |
| 20260505074055 | 21 | 170 | 0.0 | 4.8 | 0.00 | 0.00 | 0.00 | 17 | 1009.0 |
| 20260505073958 | 21 | 170 | 0.0 | 4.8 | 0.00 | 0.00 | 0.00 | 17 | 1009.0 |
| 20260505073857 | 21 | 170 | 0.0 | 4.8 | 0.00 | 0.00 | 0.00 | 17 | 1009.0 |
| 20260505073758 | 21 | 170 | 0.0 | 4.8 | 0.00 | 0.00 | 0.00 | 17 | 1009.0 |
| 20260505073657 | 21 | 170 | 0.0 | 4.8 | 0.00 | 0.00 | 0.00 | 17 | 1009.0 |
| 20260505073356 | 21 | 170 | 0.0 | 4.8 | 0.00 | 0.00 | 0.00 | 18 | 1009.0 |
| 20260505073255 | 21 | 170 | 0.0 | 4.8 | 0.00 | 0.00 | 0.00 | 18 | 1009.0 |
| 20260505073156 | 21 | 170 | 0.0 | 4.8 | 0.00 | 0.00 | 0.00 | 18 | 1009.0 |
| 20260505073057 | 21 | 170 | 0.0 | 4.8 | 0.00 | 0.00 | 0.00 | 18 | 1009.0 |
| 20260505073000 | 21 | 170 | 0.0 | 4.8 | 0.00 | 0.00 | 0.00 | 18 | 1009.0 |
| 20260505072855 | 21 | 170 | 0.0 | 4.8 | 0.00 | 0.00 | 0.00 | 18 | 1008.9 |
| 20260505072756 | 21 | 170 | 0.0 | 4.8 | 0.00 | 0.00 | 0.00 | 19 | 1009.0 |
| 20260505072657 | 21 | 170 | 0.0 | 4.8 | 0.00 | 0.00 | 0.00 | 19 | 1008.9 |
| 20260505072558 | 21 | 170 | 0.0 | 4.8 | 0.00 | 0.00 | 0.00 | 19 | 1008.9 |
| 20260505072455 | 21 | 170 | 0.0 | 4.8 | 0.00 | 0.00 | 0.00 | 19 | 1008.9 |
| 20260505072258 | 21 | 170 | 0.0 | 3.2 | 0.00 | 0.00 | 0.00 | 19 | 1009.0 |
| 20260505072158 | 21 | 170 | 0.0 | 3.2 | 0.00 | 0.00 | 0.00 | 19 | 1009.0 |
| 20260505072055 | 20 | 170 | 0.0 | 3.2 | 0.00 | 0.00 | 0.00 | 19 | 1009.1 |
| 20260505071957 | 20 | 170 | 1.6 | 3.2 | 0.00 | 0.00 | 0.00 | 19 | 1009.1 |
| 20260505071857 | 20 | 170 | 0.0 | 3.2 | 0.00 | 0.00 | 0.00 | 19 | 1009.1 |
| 20260505071758 | 20 | 170 | 0.0 | 3.2 | 0.00 | 0.00 | 0.00 | 19 | 1009.1 |
| 20260505071656 | 20 | 170 | 0.0 | 3.2 | 0.00 | 0.00 | 0.00 | 20 | 1009.1 |
| 20260505071556 | 20 | 170 | 0.0 | 3.2 | 0.00 | 0.00 | 0.00 | 20 | 1009.1 |
| 20260505071458 | 20 | 170 | 1.6 | 3.2 | 0.00 | 0.00 | 0.00 | 20 | 1009.1 |
| 20260505071358 | 20 | 165 | 0.0 | 3.2 | 0.00 | 0.00 | 0.00 | 20 | 1009.1 |
| 20260505071257 | 20 | 164 | 0.0 | 3.2 | 0.00 | 0.00 | 0.00 | 20 | 1009.2 |
| 20260505071156 | 20 | 165 | 0.0 | 3.2 | 0.00 | 0.00 | 0.00 | 21 | 1009.2 |
| 20260505071058 | 20 | 165 | 0.0 | 3.2 | 0.00 | 0.00 | 0.00 | 21 | 1009.3 |
| 20260505070959 | 20 | 165 | 1.6 | 3.2 | 0.00 | 0.00 | 0.00 | 21 | 1009.3 |
| 20260505070756 | 20 | 164 | 0.0 | 3.2 | 0.00 | 0.00 | 0.00 | 22 | 1009.3 |
| 20260505070657 | 20 | 165 | 0.0 | 3.2 | 0.00 | 0.00 | 0.00 | 22 | 1009.3 |
| 20260505070457 | 20 | 165 | 0.0 | 3.2 | 0.00 | 0.00 | 0.00 | 22 | 1009.2 |
| 20260505070356 | 20 | 164 | 0.0 | 3.2 | 0.00 | 0.00 | 0.00 | 22 | 1009.3 |
| 20260505070255 | 20 | 165 | 0.0 | 3.2 | 0.00 | 0.00 | 0.00 | 23 | 1009.3 |
| 20260505070057 | 20 | 165 | 0.0 | 3.2 | 0.00 | 0.00 | 0.00 | 23 | 1009.3 |
| 20260505065858 | 20 | 165 | 0.0 | 3.2 | 0.00 | 0.00 | 0.00 | 24 | 1009.4 |
| 20260505065758 | 20 | 165 | 0.0 | 3.2 | 0.00 | 0.00 | 0.00 | 24 | 1009.4 |
| 20260505065655 | 20 | 164 | 0.0 | 3.2 | 0.00 | 0.00 | 0.00 | 24 | 1009.4 |
| 20260505065556 | 20 | 164 | 0.0 | 3.2 | 0.00 | 0.00 | 0.00 | 24 | 1009.4 |
| 20260505065458 | 20 | 164 | 0.0 | 3.2 | 0.00 | 0.00 | 0.00 | 24 | 1009.4 |
| 20260505065358 | 20 | 165 | 0.0 | 3.2 | 0.00 | 0.00 | 0.00 | 24 | 1009.3 |
| 20260505065257 | 20 | 164 | 0.0 | 3.2 | 0.00 | 0.00 | 0.00 | 25 | 1009.4 |
| 20260505065057 | 20 | 164 | 0.0 | 1.6 | 0.00 | 0.00 | 0.00 | 25 | 1009.4 |
| 20260505065001 | 20 | 164 | 0.0 | 1.6 | 0.00 | 0.00 | 0.00 | 25 | 1009.5 |
| 20260505064857 | 20 | 164 | 0.0 | 1.6 | 0.00 | 0.00 | 0.00 | 25 | 1009.5 |
| 20260505064756 | 20 | 164 | 0.0 | 1.6 | 0.00 | 0.00 | 0.00 | 26 | 1009.5 |
| 20260505064558 | 20 | 164 | 0.0 | 1.6 | 0.00 | 0.00 | 0.00 | 26 | 1009.5 |
| 20260505064356 | 20 | 164 | 0.0 | 1.6 | 0.00 | 0.00 | 0.00 | 27 | 1009.6 |
| 20260505064158 | 20 | 164 | 0.0 | 1.6 | 0.00 | 0.00 | 0.00 | 27 | 1009.6 |
| 20260505064058 | 20 | 164 | 0.0 | 1.6 | 0.00 | 0.00 | 0.00 | 27 | 1009.6 |
| 20260505063957 | 20 | 164 | 0.0 | 1.6 | 0.00 | 0.00 | 0.00 | 27 | 1009.7 |
| 20260505063855 | 20 | 164 | 0.0 | 1.6 | 0.00 | 0.00 | 0.00 | 28 | 1009.7 |
| 20260505063759 | 20 | 164 | 0.0 | 1.6 | 0.00 | 0.00 | 0.00 | 28 | 1009.7 |
| 20260505063556 | 20 | 164 | 1.6 | 1.6 | 0.00 | 0.00 | 0.00 | 28 | 1009.8 |
| 20260505063456 | 20 | 164 | 0.0 | 1.6 | 0.00 | 0.00 | 0.00 | 28 | 1009.8 |
| 20260505063358 | 20 | 164 | 0.0 | 1.6 | 0.00 | 0.00 | 0.00 | 28 | 1009.8 |
| 20260505063257 | 20 | 164 | 0.0 | 1.6 | 0.00 | 0.00 | 0.00 | 28 | 1009.8 |
| 20260505063158 | 20 | 164 | 0.0 | 1.6 | 0.00 | 0.00 | 0.00 | 29 | 1009.8 |
| 20260505063056 | 20 | 164 | 0.0 | 4.8 | 0.00 | 0.00 | 0.00 | 29 | 1009.8 |
| 20260505062858 | 20 | 164 | 0.0 | 4.8 | 0.00 | 0.00 | 0.00 | 30 | 1009.9 |
| 20260505062758 | 20 | 164 | 0.0 | 4.8 | 0.00 | 0.00 | 0.00 | 30 | 1009.9 |
| 20260505062656 | 20 | 164 | 0.0 | 4.8 | 0.00 | 0.00 | 0.00 | 30 | 1009.9 |
| 20260505062556 | 20 | 164 | 0.0 | 4.8 | 0.00 | 0.00 | 0.00 | 30 | 1009.9 |
| 20260505062458 | 20 | 164 | 0.0 | 4.8 | 0.00 | 0.00 | 0.00 | 30 | 1009.9 |
| 20260505062258 | 20 | 164 | 0.0 | 4.8 | 0.00 | 0.00 | 0.00 | 32 | 1009.9 |
| 20260505062158 | 20 | 164 | 0.0 | 1.6 | 0.00 | 0.00 | 0.00 | 32 | 1010.0 |
| 20260505062057 | 20 | 164 | 0.0 | 1.6 | 0.00 | 0.00 | 0.00 | 32 | 1010.0 |
| 20260505061957 | 20 | 164 | 0.0 | 1.6 | 0.00 | 0.00 | 0.00 | 32 | 1010.1 |
| 20260505061855 | 20 | 164 | 0.0 | 0.0 | 0.00 | 0.00 | 0.00 | 33 | 1010.1 |
| 20260505061756 | 20 | 164 | 0.0 | 0.0 | 0.00 | 0.00 | 0.00 | 34 | 1010.1 |
| 20260505061656 | 20 | 164 | 0.0 | 1.6 | 0.00 | 0.00 | 0.00 | 35 | 1010.2 |
| 20260505061558 | 20 | 164 | 0.0 | 1.6 | 0.00 | 0.00 | 0.00 | 35 | 1010.2 |
| 20260505061456 | 20 | 164 | 0.0 | 1.6 | 0.00 | 0.00 | 0.00 | 35 | 1010.1 |
| 20260505061357 | 20 | 164 | 0.0 | 1.6 | 0.00 | 0.00 | 0.00 | 34 | 1010.1 |
| 20260505061056 | 20 | 164 | 0.0 | 1.6 | 0.00 | 0.00 | 0.00 | 34 | 1010.1 |
| 20260505060957 | 20 | 164 | 0.0 | 1.6 | 0.00 | 0.00 | 0.00 | 35 | 1010.1 |
| 20260505060857 | 20 | 164 | 0.0 | 1.6 | 0.00 | 0.00 | 0.00 | 35 | 1010.1 |
| 20260505060758 | 20 | 164 | 0.0 | 1.6 | 0.00 | 0.00 | 0.00 | 35 | 1010.0 |
| 20260505060656 | 20 | 164 | 0.0 | 1.6 | 0.00 | 0.00 | 0.00 | 35 | 1010.0 |
| 20260505060556 | 20 | 164 | 0.0 | 1.6 | 0.00 | 0.00 | 0.00 | 36 | 1010.0 |
| 20260505060457 | 20 | 164 | 0.0 | 0.0 | 0.00 | 0.00 | 0.00 | 36 | 1009.9 |
| 20260505060358 | 20 | 164 | 0.0 | 0.0 | 0.00 | 0.00 | 0.00 | 37 | 1010.0 |
| 20260505060256 | 20 | 164 | 0.0 | 0.0 | 0.00 | 0.00 | 0.00 | 36 | 1010.0 |
| 20260505060156 | 20 | 164 | 0.0 | 0.0 | 0.00 | 0.00 | 0.00 | 36 | 1010.0 |
| 20260505060057 | 20 | 164 | 0.0 | 1.6 | 0.00 | 0.00 | 0.00 | 36 | 1010.0 |
| 20260505055859 | 20 | 164 | 0.0 | 1.6 | 0.00 | 0.00 | 0.00 | 36 | 1010.0 |
| 20260505055757 | 20 | 164 | 0.0 | 1.6 | 0.00 | 0.00 | 0.00 | 37 | 1009.9 |
| 20260505055657 | 20 | 164 | 0.0 | 1.6 | 0.00 | 0.00 | 0.00 | 37 | 1009.9 |
| 20260505055559 | 20 | 164 | 0.0 | 1.6 | 0.00 | 0.00 | 0.00 | 37 | 1009.9 |
| 20260505055500 | 20 | 164 | 0.0 | 1.6 | 0.00 | 0.00 | 0.00 | 37 | 1009.9 |
| 20260505055357 | 20 | 164 | 0.0 | 1.6 | 0.00 | 0.00 | 0.00 | 37 | 1009.9 |
| 20260505055256 | 20 | 164 | 0.0 | 1.6 | 0.00 | 0.00 | 0.00 | 37 | 1009.9 |
| 20260505055200 | 20 | 164 | 0.0 | 1.6 | 0.00 | 0.00 | 0.00 | 38 | 1009.9 |
| 20260505055100 | 21 | 164 | 0.0 | 1.6 | 0.00 | 0.00 | 0.00 | 38 | 1009.9 |
| 20260505054958 | 21 | 164 | 0.0 | 1.6 | 0.00 | 0.00 | 0.00 | 38 | 1009.9 |
| 20260505054857 | 21 | 164 | 0.0 | 1.6 | 0.00 | 0.00 | 0.00 | 38 | 1009.9 |
| 20260505054759 | 21 | 164 | 0.0 | 1.6 | 0.00 | 0.00 | 0.00 | 39 | 1009.9 |
| 20260505054659 | 21 | 164 | 0.0 | 1.6 | 0.00 | 0.00 | 0.00 | 39 | 1009.9 |
| 20260505054557 | 21 | 164 | 0.0 | 1.6 | 0.00 | 0.00 | 0.00 | 39 | 1010.0 |
| 20260505054400 | 21 | 164 | 0.0 | 1.6 | 0.00 | 0.00 | 0.00 | 39 | 1010.0 |
| 20260505054300 | 21 | 164 | 0.0 | 1.6 | 0.00 | 0.00 | 0.00 | 40 | 1010.1 |
| 20260505054157 | 21 | 164 | 0.0 | 1.6 | 0.00 | 0.00 | 0.00 | 40 | 1010.1 |
| 20260505054056 | 21 | 164 | 0.0 | 0.0 | 0.00 | 0.00 | 0.00 | 41 | 1010.1 |
| 20260505053959 | 21 | 164 | 0.0 | 0.0 | 0.00 | 0.00 | 0.00 | 41 | 1010.2 |
| 20260505053859 | 21 | 164 | 0.0 | 0.0 | 0.00 | 0.00 | 0.00 | 41 | 1010.2 |
| 20260505053800 | 21 | 164 | 0.0 | 0.0 | 0.00 | 0.00 | 0.00 | 41 | 1010.2 |
| 20260505053656 | 21 | 164 | 0.0 | 0.0 | 0.00 | 0.00 | 0.00 | 41 | 1010.3 |
| 20260505053557 | 21 | 164 | 0.0 | 0.0 | 0.00 | 0.00 | 0.00 | 41 | 1010.3 |
| 20260505053459 | 21 | 164 | 0.0 | 0.0 | 0.00 | 0.00 | 0.00 | 42 | 1010.3 |
| 20260505053400 | 21 | 164 | 0.0 | 0.0 | 0.00 | 0.00 | 0.00 | 43 | 1010.3 |
| 20260505053256 | 21 | 164 | 0.0 | 0.0 | 0.00 | 0.00 | 0.00 | 42 | 1010.3 |
| 20260505053059 | 21 | 164 | 0.0 | 0.0 | 0.00 | 0.00 | 0.00 | 43 | 1010.3 |
| 20260505052856 | 21 | 164 | 0.0 | 3.2 | 0.00 | 0.00 | 0.00 | 43 | 1010.4 |
| 20260505052757 | 21 | 164 | 0.0 | 3.2 | 0.00 | 0.00 | 0.00 | 43 | 1010.4 |
| 20260505052700 | 21 | 164 | 0.0 | 3.2 | 0.00 | 0.00 | 0.00 | 43 | 1010.4 |
| 20260505052600 | 21 | 164 | 0.0 | 3.2 | 0.00 | 0.00 | 0.00 | 43 | 1010.4 |
| 20260505052459 | 21 | 164 | 0.0 | 3.2 | 0.00 | 0.00 | 0.00 | 43 | 1010.3 |
| 20260505052357 | 21 | 164 | 0.0 | 3.2 | 0.00 | 0.00 | 0.00 | 43 | 1010.3 |
| 20260505052300 | 21 | 164 | 0.0 | 3.2 | 0.00 | 0.00 | 0.00 | 43 | 1010.3 |
| 20260505052200 | 21 | 164 | 0.0 | 3.2 | 0.00 | 0.00 | 0.00 | 43 | 1010.3 |
| 20260505052056 | 21 | 164 | 1.6 | 1.6 | 0.00 | 0.00 | 0.00 | 43 | 1010.3 |
| 20260505051656 | 21 | 164 | 0.0 | 1.6 | 0.00 | 0.00 | 0.00 | 45 | 1010.3 |
| 20260505051558 | 21 | 164 | 0.0 | 1.6 | 0.00 | 0.00 | 0.00 | 45 | 1010.3 |
| 20260505051359 | 21 | 164 | 0.0 | 3.2 | 0.00 | 0.00 | 0.00 | 45 | 1010.3 |
| 20260505051256 | 21 | 164 | 0.0 | 3.2 | 0.00 | 0.00 | 0.00 | 45 | 1010.3 |
| 20260505051157 | 21 | 164 | 0.0 | 3.2 | 0.00 | 0.00 | 0.00 | 45 | 1010.3 |
| 20260505051057 | 21 | 164 | 0.0 | 3.2 | 0.00 | 0.00 | 0.00 | 46 | 1010.3 |
| 20260505051000 | 21 | 164 | 0.0 | 3.2 | 0.00 | 0.00 | 0.00 | 45 | 1010.3 |
| 20260505050757 | 21 | 164 | 0.0 | 3.2 | 0.00 | 0.00 | 0.00 | 46 | 1010.3 |
| 20260505050659 | 21 | 164 | 0.0 | 3.2 | 0.00 | 0.00 | 0.00 | 46 | 1010.3 |
| 20260505050600 | 21 | 164 | 0.0 | 3.2 | 0.00 | 0.00 | 0.00 | 46 | 1010.4 |
| 20260505050457 | 21 | 164 | 0.0 | 1.6 | 0.00 | 0.00 | 0.00 | 47 | 1010.3 |
| 20260505050357 | 21 | 164 | 0.0 | 1.6 | 0.00 | 0.00 | 0.00 | 46 | 1010.3 |
| 20260505050300 | 21 | 164 | 0.0 | 1.6 | 0.00 | 0.00 | 0.00 | 46 | 1010.3 |
| 20260505050200 | 21 | 164 | 0.0 | 1.6 | 0.00 | 0.00 | 0.00 | 47 | 1010.3 |
| 20260505041559 | 21 | 196 | 0.0 | 3.2 | 0.00 | 0.00 | 0.00 | 54 | 1010.6 |
| 20260505041458 | 21 | 196 | 0.0 | 3.2 | 0.00 | 0.00 | 0.00 | 55 | 1010.6 |
| 20260505041358 | 21 | 196 | 0.0 | 3.2 | 0.00 | 0.00 | 0.00 | 55 | 1010.7 |
| 20260505041158 | 21 | 196 | 0.0 | 3.2 | 0.00 | 0.00 | 0.00 | 55 | 1010.6 |
| 20260505041058 | 21 | 196 | 0.0 | 3.2 | 0.00 | 0.00 | 0.00 | 55 | 1010.7 |
| 20260505040959 | 21 | 196 | 0.0 | 4.8 | 0.00 | 0.00 | 0.00 | 55 | 1010.6 |
| 20260505040858 | 21 | 196 | 1.6 | 4.8 | 0.00 | 0.00 | 0.00 | 55 | 1010.6 |
| 20260505040757 | 21 | 196 | 0.0 | 4.8 | 0.00 | 0.00 | 0.00 | 55 | 1010.6 |
| 20260505040558 | 21 | 196 | 0.0 | 4.8 | 0.00 | 0.00 | 0.00 | 55 | 1010.6 |
| 20260505040458 | 21 | 196 | 0.0 | 4.8 | 0.00 | 0.00 | 0.00 | 55 | 1010.6 |
| 20260505040359 | 21 | 196 | 0.0 | 4.8 | 0.00 | 0.00 | 0.00 | 55 | 1010.6 |
| 20260505040258 | 21 | 196 | 1.6 | 4.8 | 0.00 | 0.00 | 0.00 | 56 | 1010.5 |
| 20260505040200 | 21 | 196 | 0.0 | 4.8 | 0.00 | 0.00 | 0.00 | 56 | 1010.6 |
| 20260505040057 | 21 | 196 | 0.0 | 3.2 | 0.00 | 0.00 | 0.00 | 56 | 1010.5 |
| 20260505040002 | 22 | 196 | 1.6 | 3.2 | 0.00 | 0.00 | 0.00 | 56 | 1010.5 |
| 20260505035858 | 22 | 196 | 0.0 | 3.2 | 0.00 | 0.00 | 0.00 | 56 | 1010.5 |
| 20260505035759 | 22 | 196 | 0.0 | 3.2 | 0.00 | 0.00 | 0.00 | 56 | 1010.6 |
| 20260505035658 | 22 | 196 | 0.0 | 3.2 | 0.00 | 0.00 | 0.00 | 56 | 1010.5 |
| 20260505035558 | 22 | 196 | 0.0 | 3.2 | 0.00 | 0.00 | 0.00 | 57 | 1010.6 |
| 20260505035459 | 22 | 196 | 1.6 | 3.2 | 0.00 | 0.00 | 0.00 | 57 | 1010.6 |
| 20260505035359 | 22 | 196 | 0.0 | 3.2 | 0.00 | 0.00 | 0.00 | 57 | 1010.6 |
| 20260505035258 | 22 | 196 | 0.0 | 3.2 | 0.00 | 0.00 | 0.00 | 57 | 1010.7 |
| 20260505035158 | 22 | 196 | 3.2 | 3.2 | 0.00 | 0.00 | 0.00 | 57 | 1010.8 |
| 20260505035058 | 22 | 196 | 0.0 | 3.2 | 0.00 | 0.00 | 0.00 | 57 | 1010.8 |
| 20260505035000 | 22 | 196 | 1.6 | 3.2 | 0.00 | 0.00 | 0.00 | 57 | 1010.8 |
| 20260505034857 | 22 | 196 | 0.0 | 3.2 | 0.00 | 0.00 | 0.00 | 58 | 1010.7 |
| 20260505034759 | 22 | 196 | 0.0 | 3.2 | 0.00 | 0.00 | 0.00 | 58 | 1010.8 |
| 20260505034658 | 22 | 196 | 0.0 | 3.2 | 0.00 | 0.00 | 0.00 | 58 | 1010.8 |
| 20260505034558 | 22 | 196 | 0.0 | 3.2 | 0.00 | 0.00 | 0.00 | 58 | 1010.8 |
| 20260505034456 | 22 | 196 | 0.0 | 3.2 | 0.00 | 0.00 | 0.00 | 58 | 1010.8 |
| 20260505034358 | 22 | 196 | 1.6 | 3.2 | 0.00 | 0.00 | 0.00 | 58 | 1010.7 |
| 20260505034257 | 22 | 196 | 0.0 | 3.2 | 0.00 | 0.00 | 0.00 | 58 | 1010.8 |
| 20260505034158 | 22 | 196 | 0.0 | 3.2 | 0.00 | 0.00 | 0.00 | 58 | 1010.8 |
| 20260505034057 | 22 | 196 | 0.0 | 3.2 | 0.00 | 0.00 | 0.00 | 58 | 1010.8 |